GFSNE_sfc_dewp_000.txt.gz
Dewpoint
33 33 33 34 35 35 35 33 30 28 28 30 30 34 36 39 43 45 46 48 48 47 47 48 49 50 50 51 52 53 55 58 57 57 57 57 57 57
32 33 33 33 34 35 35 34 34 31 27 27 28 35 36 37 40 42 43 46 46 45 45 44 46 47 47 49 49 50 49 53 56 56 56 57 57 57
31 31 30 31 31 32 33 33 32 31 29 29 31 33 34 35 37 39 42 43 44 44 42 43 43 44 44 44 46 46 48 51 50 54 56 56 56 56
26 28 27 26 27 30 31 30 31 30 29 27 28 29 30 33 35 35 36 41 43 43 44 44 44 43 44 44 43 43 45 46 47 49 53 55 55 55
26 27 28 28 28 28 28 28 30 29 30 29 29 32 33 33 33 34 34 36 39 44 43 43 41 42 42 43 43 43 43 44 44 45 46 51 53 54
26 26 27 27 26 26 25 26 26 27 27 27 27 28 30 32 32 31 31 34 33 35 42 41 41 42 42 42 41 42 43 43 44 44 43 44 47 51
26 25 25 27 28 29 26 25 25 24 23 22 21 22 23 24 26 30 30 31 33 34 35 36 37 37 38 40 41 42 42 43 43 43 43 43 43 47
24 23 23 25 25 26 27 28 27 24 23 23 23 22 22 24 25 27 30 30 29 33 34 32 36 37 37 37 39 38 39 40 41 43 43 43 43 43
24 24 23 22 24 24 25 27 28 28 27 25 24 23 24 25 25 25 28 29 29 33 34 33 32 33 31 35 36 37 38 39 39 41 42 42 41 42
25 25 24 25 25 25 25 25 25 25 25 24 25 26 26 27 27 26 26 26 28 33 34 31 30 23 23 27 34 35 36 37 37 38 40 41 41 40
26 26 26 25 27 28 27 28 26 27 28 29 30 29 29 30 30 28 27 26 25 25 32 31 29 28 21 23 24 32 34 35 36 36 39 41 41 40
24 24 25 25 27 27 26 26 26 26 26 26 26 28 30 30 31 30 30 27 25 19 27 29 23 23 23 18 19 21 25 32 34 36 38 41 41 42
24 24 25 26 27 29 28 27 27 27 27 28 27 27 27 28 28 30 31 30 28 27 27 29 23 21 21 20 18 19 22 26 32 33 37 39 41 42
25 26 27 28 29 30 30 29 28 28 28 28 27 26 27 27 28 28 29 31 31 28 29 29 25 23 20 15 19 18 18 22 30 30 32 35 38 39
27 27 27 25 25 27 27 28 28 28 27 26 25 24 27 28 28 29 27 29 29 31 31 30 28 25 27 23 20 16 18 19 24 27 27 28 30 32
25 24 23 23 22 22 23 24 26 27 27 27 25 25 26 28 28 28 25 28 28 29 32 32 30 29 27 22 25 17 22 22 19 26 26 26 27 28
25 20 20 19 19 20 21 22 24 26 26 27 27 26 26 26 27 27 28 29 28 23 26 29 31 30 28 26 21 25 20 23 23 24 26 24 25 26
23 19 18 18 18 19 19 19 21 23 25 22 19 22 23 25 25 27 28 28 26 25 24 24 25 25 25 23 27 23 22 24 21 23 25 23 22 25
22 20 18 18 18 19 19 19 19 21 24 24 27 27 27 25 29 27 27 26 24 24 24 24 25 23 18 14 19 25 23 23 22 23 24 24 22 23
19 19 18 18 19 19 18 18 18 19 20 21 22 24 25 24 21 23 23 22 21 20 21 23 23 23 19 15 12 13 25 23 23 21 21 23 25 27
16 16 17 17 17 19 18 16 15 17 18 18 19 20 21 17 19 19 18 18 17 20 19 20 20 21 19 18 13 12 18 27 26 22 22 21 19 19
14 14 15 15 15 15 16 17 15 16 16 16 17 17 18 18 18 20 17 15 16 15 17 19 22 21 17 16 9 4 12 18 24 25 25 23 19 16
12 12 12 12 13 14 14 15 17 16 16 15 14 15 16 16 16 15 14 15 17 18 19 18 19 18 17 14 12 10 11 14 14 13 12 21 25 25

GFSNE_sfc_dewp_003.txt.gz
Dewpoint
34 32 32 32 33 34 34 34 31 27 24 27 31 34 35 39 41 43 43 44 46 45 45 48 48 49 49 50 50 50 50 51 55 59 58 58 58 57
33 32 32 33 33 34 35 34 34 31 27 28 28 30 34 36 39 40 41 44 45 45 44 44 44 46 47 47 48 48 49 49 50 53 57 57 58 57
30 30 29 30 30 30 32 32 31 31 29 28 30 33 33 32 33 37 40 39 42 42 43 42 42 43 44 43 43 46 46 47 50 51 53 56 58 57
27 27 27 25 27 29 30 30 30 31 30 29 29 30 30 33 34 35 36 37 38 39 41 41 42 43 42 43 43 42 43 44 45 47 48 50 52 57
27 27 28 28 28 28 28 28 28 28 29 28 27 31 32 32 32 33 34 34 34 35 35 38 41 42 42 41 42 42 42 43 43 43 43 45 48 50
26 25 25 25 25 25 25 25 25 26 27 27 25 26 29 29 30 30 30 32 32 33 36 37 39 41 42 41 41 41 42 41 42 42 41 41 42 44
25 25 24 25 26 26 25 25 26 25 24 23 21 20 21 23 25 25 26 28 31 33 34 36 36 39 39 40 41 41 41 40 41 42 42 41 41 42
23 23 23 24 25 25 25 25 26 24 23 22 22 21 21 22 23 23 25 25 25 33 34 34 34 36 37 36 38 39 38 39 39 40 41 41 41 41
24 24 23 23 25 23 25 25 27 27 26 25 24 23 22 23 25 26 26 26 26 29 33 29 29 32 33 35 37 37 37 38 38 38 38 38 39 40
24 24 24 25 25 24 24 25 24 24 25 25 25 25 26 26 26 26 25 25 26 27 31 28 25 27 28 30 34 35 36 36 36 36 36 37 38 39
24 24 24 24 26 27 25 26 25 25 27 28 28 28 28 29 29 28 27 27 24 24 26 28 26 21 20 27 26 33 33 34 34 35 36 36 37 38
23 23 24 24 26 25 25 26 25 24 24 24 26 27 30 29 30 29 30 26 25 22 24 26 24 24 27 17 18 20 23 31 33 34 35 36 37 39
23 23 25 26 27 27 29 28 27 26 26 25 25 28 27 27 28 29 30 30 28 26 27 27 24 23 22 21 15 17 23 21 26 28 32 34 36 39
24 27 26 25 25 24 25 28 27 29 27 26 26 26 27 27 27 28 29 30 30 29 29 30 25 24 21 22 23 15 14 16 18 20 24 30 32 35
28 24 23 23 23 23 23 25 24 26 26 25 25 25 26 26 27 27 29 30 30 32 32 32 29 25 25 25 19 19 17 15 14 15 17 21 27 29
25 24 21 22 20 21 22 23 24 24 24 24 25 25 27 27 28 28 28 28 28 29 32 32 32 30 28 26 25 24 14 19 18 14 16 15 19 25
23 21 20 18 17 18 19 19 20 22 22 24 25 26 26 26 26 26 27 26 27 23 25 29 32 32 31 30 24 23 20 16 18 17 15 15 16 19
22 19 16 16 15 17 16 16 17 19 20 22 21 22 22 23 22 24 27 27 26 25 23 24 25 25 25 24 27 21 22 23 20 15 16 14 16 20
18 17 16 14 16 17 16 16 16 18 19 20 21 25 26 24 25 25 26 27 25 24 23 24 24 24 21 17 20 25 22 22 16 16 15 15 16 20
16 16 14 15 15 15 16 15 14 14 16 17 18 19 20 21 23 24 25 22 19 19 20 22 23 23 22 20 18 18 26 16 11 11 15 20 24 26
13 14 14 14 14 13 13 14 11 12 11 12 14 15 15 19 19 18 19 18 19 21 19 19 18 22 20 19 15 14 16 27 21 14 17 17 17 18
11 12 12 12 12 12 12 12 14 14 13 13 12 12 12 12 12 18 15 13 15 13 16 18 22 22 19 17 12 8 11 14 21 21 24 23 19 15
10 9 10 10 11 12 12 11 12 13 13 10 10 10 7 8 12 10 9 10 12 11 12 14 17 16 15 14 13 11 10 11 13 14 13 19 25 24

GFSNE_sfc_dewp_006.txt.gz
Dewpoint
37 37 36 36 36 35 35 33 31 26 25 26 28 34 34 37 38 40 41 41 43 43 44 45 47 48 48 48 48 49 49 49 49 50 55 59 59 59
36 35 34 34 33 33 34 34 34 32 26 27 28 31 32 33 38 37 37 41 42 41 41 43 43 44 45 46 47 47 47 47 48 51 52 54 59 59
31 30 29 29 29 30 31 31 31 31 29 28 30 31 33 34 33 35 38 38 40 40 39 40 41 41 42 43 44 44 46 45 45 46 50 51 54 59
27 27 27 26 28 29 30 29 30 30 29 27 30 30 31 33 35 35 35 36 37 37 38 38 38 40 41 41 41 42 43 43 44 44 45 48 50 52
27 26 27 26 26 26 26 26 27 27 28 28 26 30 30 32 32 33 34 35 35 34 35 35 37 39 41 41 41 41 42 42 42 42 42 42 44 47
25 24 24 24 23 23 23 23 24 25 25 25 24 25 28 29 30 28 29 32 30 29 32 34 37 38 40 41 41 41 41 42 41 41 41 40 40 41
24 23 23 24 25 25 23 24 24 25 25 25 24 23 23 24 25 25 26 27 29 31 30 31 35 37 38 39 41 41 41 41 41 41 41 41 41 41
23 23 23 25 25 26 26 26 25 24 23 22 22 21 21 21 22 22 24 24 22 30 29 30 35 34 36 37 37 39 39 40 39 39 39 39 39 39
23 23 23 22 24 24 25 25 25 26 25 25 25 24 23 23 23 25 25 24 23 26 31 29 32 33 34 35 36 37 38 38 37 37 38 37 37 37
23 23 23 24 24 24 24 25 25 25 24 23 24 25 25 25 25 24 25 26 27 26 30 26 29 29 30 32 34 35 36 37 36 35 36 36 36 36
23 24 24 23 25 26 26 26 25 25 26 27 27 28 27 28 28 26 26 26 25 24 27 26 26 26 27 30 33 33 34 36 35 35 36 36 36 36
23 24 24 24 26 27 26 26 25 25 25 26 26 25 27 29 30 29 29 26 25 24 25 26 25 26 26 26 28 31 33 34 33 34 34 34 34 36
24 23 25 27 25 24 24 25 25 25 28 28 27 26 28 27 29 30 30 29 27 27 26 26 24 25 26 26 25 26 28 29 31 32 33 33 34 34
24 25 26 24 23 23 23 24 24 25 25 26 26 25 26 26 27 28 28 29 29 28 29 28 27 26 26 25 25 24 25 25 28 28 29 29 30 31
27 28 26 22 21 21 22 24 24 23 23 24 25 25 26 27 29 30 30 29 30 31 31 31 30 27 27 26 25 25 26 25 26 26 26 26 27 28
26 25 23 22 19 19 21 21 21 22 22 23 24 26 28 28 28 29 28 28 28 29 32 33 32 31 28 28 28 27 23 27 26 24 24 24 25 26
25 22 19 17 16 17 17 17 19 20 20 22 23 24 25 26 26 28 28 28 27 26 27 30 32 32 32 31 26 27 27 23 25 26 24 24 24 25
21 18 17 15 14 16 16 15 16 16 18 20 21 23 23 24 24 25 26 26 25 26 26 26 27 27 25 26 28 27 25 25 25 25 24 23 22 24
16 16 15 14 14 14 15 15 14 15 17 18 19 20 21 24 24 24 25 26 26 27 26 25 25 25 21 20 22 26 25 24 24 24 24 22 21 23
14 14 13 13 14 13 13 13 14 14 14 14 16 17 17 20 20 21 23 22 22 22 21 23 24 23 22 21 20 21 26 24 23 21 22 23 24 25
12 12 12 12 12 13 12 12 12 13 13 11 13 13 14 17 21 18 17 16 18 20 18 17 18 21 20 20 17 16 18 27 24 22 21 20 19 20
10 10 11 11 11 12 12 12 12 12 13 12 10 10 10 12 13 15 13 14 15 15 16 18 20 21 19 18 14 14 16 18 22 23 24 23 20 17
9 9 9 9 10 10 10 9 10 12 13 12 9 10 6 9 12 12 12 13 14 14 16 16 16 15 15 14 14 14 15 15 16 17 17 23 25 23

GFSNE_sfc_dewp_009.txt.gz
Dewpoint
37 37 37 37 38 38 36 34 31 27 25 25 24 28 29 28 32 33 37 39 42 42 42 42 42 43 43 44 45 47 43 45 47 46 47 50 52 56
36 37 36 35 35 34 32 31 28 24 20 19 20 25 28 23 29 33 33 38 40 40 39 40 41 39 40 41 41 45 46 45 46 46 47 47 51 54
32 31 29 29 28 28 28 26 25 24 22 22 23 26 28 28 27 30 32 32 33 40 38 38 38 38 38 40 41 41 44 45 45 45 46 48 49 50
26 27 25 22 27 28 27 28 27 27 25 24 24 25 28 29 30 31 29 30 34 35 37 38 37 37 37 39 41 41 41 42 43 44 44 45 46 47
27 27 26 26 25 24 24 23 23 21 23 22 22 23 24 26 26 27 28 31 29 33 36 36 36 36 37 38 40 41 41 41 41 42 42 42 42 43
26 25 24 23 22 22 20 21 20 21 21 21 20 20 21 23 24 24 26 28 28 24 28 30 31 33 36 36 38 40 41 42 41 41 40 40 40 41
25 23 23 24 25 24 22 22 22 22 21 21 20 21 21 22 23 24 24 27 28 29 28 29 30 30 31 34 35 39 41 41 41 41 41 40 39 40
22 22 21 23 23 25 26 26 25 23 21 21 20 20 19 20 20 21 23 23 22 28 28 28 29 30 31 32 33 37 39 40 40 40 39 39 39 38
21 20 19 18 23 22 24 24 25 25 25 24 23 23 22 22 22 23 24 24 23 25 27 27 30 31 33 31 37 37 38 38 37 38 37 38 37 37
21 21 21 22 23 23 22 23 23 24 24 23 23 23 22 23 23 24 25 25 26 25 28 27 30 32 33 35 34 35 35 37 38 36 36 36 36 36
22 22 22 22 24 26 25 26 26 23 23 26 27 28 29 28 27 26 27 27 26 21 24 26 28 30 31 35 37 33 34 36 37 37 37 36 36 36
23 23 24 24 26 28 28 27 25 21 21 26 26 25 28 29 30 31 29 26 24 22 23 24 22 23 26 33 34 36 37 34 34 36 35 35 35 37
23 23 26 28 28 25 24 25 24 23 24 25 24 24 26 28 27 26 29 30 27 25 23 25 22 23 26 26 31 33 35 35 37 36 33 34 33 34
24 26 29 26 24 22 22 23 24 25 26 25 25 25 26 27 26 26 26 28 30 28 27 28 28 24 26 25 24 31 35 36 36 36 37 34 31 32
28 26 24 24 22 20 20 22 23 24 24 24 24 25 28 28 29 31 31 29 30 33 31 31 31 28 28 28 26 27 30 34 34 35 36 35 34 35
26 25 24 22 20 20 20 21 22 23 22 23 24 25 28 29 28 29 29 29 29 28 33 33 33 33 31 28 26 28 30 30 33 33 34 35 34 33
25 23 20 19 17 18 19 19 20 21 21 23 24 25 26 27 26 28 28 28 28 26 28 30 33 33 34 33 31 28 28 29 31 33 31 32 34 34
20 18 18 18 18 17 17 18 19 19 19 21 23 24 25 26 26 27 27 27 27 27 27 28 29 31 30 29 28 28 28 29 29 31 32 31 30 33
17 17 16 16 17 16 16 17 17 19 20 20 21 22 24 26 28 27 27 27 27 28 28 29 28 27 23 23 26 26 28 28 30 30 29 29 30 30
15 15 15 15 16 15 15 16 17 19 19 19 20 21 22 25 26 26 26 27 28 26 25 25 27 27 26 27 26 26 25 27 28 29 28 29 28 25
12 13 14 14 15 15 17 17 18 19 19 19 20 19 21 22 23 24 25 23 24 24 22 22 23 23 25 27 25 24 25 26 27 29 27 27 25 24
12 12 12 13 14 15 16 16 17 18 18 19 19 20 21 21 21 22 23 24 22 23 21 21 22 22 24 22 22 21 22 24 23 24 25 26 26 23
10 10 12 13 13 14 14 15 15 17 16 17 18 19 20 20 20 21 22 21 20 21 20 21 20 19 19 19 20 20 19 20 22 22 24 22 24 23

GFSNE_sfc_dewp_015.txt.gz
Dewpoint
39 39 37 37 38 37 35 31 33 30 28 28 31 36 43 41 38 37 35 38 41 39 41 42 42 42 41 40 39 38 40 45 47 44 43 46 47 47
39 38 38 38 38 38 35 33 33 31 26 27 27 30 29 22 30 31 31 38 40 39 40 41 41 40 40 39 37 35 36 37 41 45 45 44 43 44
33 31 30 29 27 27 27 28 27 26 24 24 24 27 30 31 27 32 31 33 33 39 38 40 40 40 39 38 38 39 38 38 38 38 40 44 45 44
33 31 29 23 25 25 24 24 24 24 23 23 23 25 27 29 30 31 25 22 29 31 39 39 39 38 38 38 37 37 38 39 39 39 39 39 40 44
27 26 24 24 24 24 24 24 22 19 23 22 21 23 24 25 26 27 28 31 24 32 39 39 39 38 38 38 38 37 37 37 38 38 38 39 39 40
25 24 24 24 24 24 23 23 21 21 21 21 21 21 22 22 24 24 25 27 27 20 26 28 35 37 37 37 37 37 37 37 36 37 38 37 38 39
23 21 24 26 28 26 21 22 22 21 20 21 21 21 21 22 22 23 25 27 28 29 30 30 31 31 31 34 32 35 36 35 35 34 34 37 38 39
21 21 21 25 25 29 29 29 25 21 20 20 21 21 21 23 24 24 26 25 25 30 28 30 31 30 30 31 34 35 36 34 35 35 35 39 39 38
22 21 19 16 24 20 24 28 27 28 27 24 22 22 22 24 24 25 26 26 26 27 28 29 34 33 34 27 34 34 34 36 37 37 38 38 37 37
21 21 21 20 21 24 23 24 24 24 25 26 26 24 24 24 24 24 25 26 28 27 30 29 33 33 35 35 33 33 34 35 37 37 37 36 36 36
20 22 22 22 25 26 25 26 24 24 26 28 29 30 29 30 29 26 27 29 28 25 26 28 31 32 33 34 36 34 34 34 35 36 35 36 36 35
23 21 25 26 27 29 29 29 27 23 22 24 26 24 28 30 30 30 27 25 26 26 25 26 27 28 29 34 34 36 37 34 34 34 34 34 36 36
23 24 26 29 27 26 25 26 25 26 24 23 23 24 25 25 26 30 31 30 28 26 27 27 31 27 28 29 33 36 36 38 38 38 34 34 35 36
24 26 29 26 24 25 24 24 24 23 25 26 28 28 29 28 27 28 30 34 33 30 30 30 31 28 26 29 27 31 34 37 37 38 38 37 35 36
27 26 27 27 26 25 27 24 24 27 28 27 26 27 29 30 29 30 31 33 34 33 31 31 31 33 31 28 26 31 33 35 37 36 38 36 35 36
23 24 27 26 26 28 28 27 28 28 26 27 27 27 29 29 31 32 30 30 31 30 32 33 32 31 29 28 27 29 31 31 35 35 35 35 35 38
23 26 24 22 22 24 24 25 26 24 25 26 27 27 28 28 31 32 28 29 30 29 29 31 33 33 31 31 29 29 30 32 33 34 35 33 35 37
23 21 21 21 21 22 22 22 23 23 22 24 26 26 26 27 29 30 28 27 27 29 30 29 33 30 29 31 32 29 29 30 31 34 36 32 30 35
20 20 20 20 20 20 21 21 21 22 23 23 24 25 25 26 29 28 30 30 28 30 30 32 30 30 28 27 28 28 29 31 33 32 34 35 30 30
18 18 18 19 17 15 17 18 21 22 22 23 24 25 25 26 26 26 28 27 27 28 28 28 29 28 28 26 28 26 25 27 29 30 30 34 31 27
15 16 18 15 16 16 19 20 22 22 22 23 23 24 24 25 25 25 25 26 25 24 24 24 24 26 26 30 29 28 26 24 26 27 29 31 28 28
13 12 13 15 17 16 19 20 21 21 20 20 22 24 25 25 24 24 24 24 24 25 23 24 23 22 24 24 24 25 26 26 25 24 25 26 25 25
14 13 15 15 15 16 15 17 17 19 19 18 19 22 24 24 24 24 24 24 22 23 23 22 22 22 22 20 22 25 21 23 22 27 26 24 24 25

GFSNE_sfc_dewp_021.txt.gz
Dewpoint
38 40 40 40 39 39 38 36 34 28 27 29 30 36 39 40 41 42 43 42 43 43 41 39 39 41 43 43 45 46 49 50 47 46 44 44 45 46
37 37 36 39 38 39 38 37 37 34 30 31 31 32 32 34 39 40 41 40 40 42 39 40 39 40 41 42 42 41 40 41 43 45 46 46 45 44
34 33 33 35 34 34 34 33 32 34 32 30 32 30 28 30 31 37 39 39 39 39 39 39 39 40 40 41 40 39 39 39 38 36 36 37 39 42
26 26 26 24 27 28 29 28 28 27 26 24 25 25 24 25 27 26 26 26 31 35 39 39 39 39 39 39 40 39 38 37 37 37 36 34 34 36
25 24 23 23 23 24 25 27 27 25 25 23 22 23 23 25 23 25 25 25 23 33 35 38 39 39 40 40 40 40 39 38 37 37 37 37 37 35
25 25 23 23 23 24 25 24 23 23 23 21 21 22 23 24 25 25 25 27 28 27 30 32 36 39 40 40 39 39 38 38 38 37 36 36 36 36
24 22 23 24 27 28 25 26 23 22 21 21 21 21 21 22 21 25 24 25 26 28 28 28 28 30 32 36 39 39 39 39 38 38 37 37 36 36
21 21 22 23 24 25 27 27 28 27 22 21 20 20 21 21 22 22 23 23 22 28 27 26 29 28 30 32 34 37 35 34 35 35 37 37 37 36
21 21 19 17 23 23 25 26 27 28 29 27 25 23 22 23 23 22 22 23 23 26 26 23 24 26 28 30 34 36 34 34 34 34 34 34 36 36
22 21 21 22 23 23 23 24 25 25 26 26 27 26 26 26 26 25 26 30 28 27 27 23 22 25 26 28 33 35 36 36 35 35 35 34 34 35
23 22 21 21 24 28 26 25 25 26 27 28 28 29 30 31 31 30 28 26 23 23 25 24 23 22 23 26 29 33 34 35 35 35 35 35 35 35
22 22 23 22 28 28 27 23 22 22 23 24 25 25 24 25 26 26 27 25 24 23 23 23 22 23 19 23 28 29 27 33 34 35 35 35 35 34
21 20 22 24 25 27 26 26 24 25 26 24 23 22 23 24 26 27 27 28 26 25 25 26 23 23 23 23 22 24 28 29 30 32 35 36 36 35
21 22 23 27 27 25 26 28 29 27 25 24 24 23 25 27 30 32 32 32 30 28 28 29 28 27 25 22 23 27 26 27 28 27 27 32 35 36
22 24 26 25 24 25 27 27 27 27 26 25 25 25 27 28 30 30 29 30 32 33 33 32 32 30 30 27 25 25 27 27 23 29 33 32 29 30
21 22 24 23 23 24 23 24 25 25 24 23 24 26 28 27 25 27 29 29 24 24 30 31 31 31 29 29 29 27 26 22 25 32 32 32 27 30
21 21 20 19 19 21 21 21 21 23 22 23 23 24 24 25 25 27 29 25 23 21 24 27 30 30 30 29 27 27 26 24 25 26 30 30 31 30
18 18 17 18 18 17 18 19 20 22 21 22 23 23 23 23 24 26 26 25 24 23 23 27 28 29 29 28 31 28 25 23 22 24 30 30 28 28
16 16 16 16 16 16 16 17 18 21 21 20 21 21 22 23 24 22 23 23 24 27 25 23 23 25 25 24 23 28 27 27 24 21 23 27 28 32
13 15 15 15 15 15 16 16 17 18 18 18 18 19 21 22 20 21 22 20 24 25 23 23 20 20 20 19 17 14 25 18 18 21 23 23 26 30
10 13 15 15 15 15 14 14 15 15 14 14 15 17 18 21 20 19 19 19 19 23 21 20 20 21 23 20 18 15 14 24 20 16 18 16 21 27
4 9 14 14 13 13 13 12 12 11 11 11 12 13 15 18 18 19 19 20 16 15 18 19 24 26 23 21 18 17 16 10 20 24 24 23 17 18
0 4 6 9 11 12 14 12 10 8 8 9 9 10 12 14 15 18 17 16 19 14 15 19 23 23 22 21 17 20 11 12 15 17 16 23 25 25

GFSNE_sfc_dewp_024.txt.gz
Dewpoint
35 37 37 37 37 39 38 37 33 29 27 29 30 33 35 38 40 39 41 40 40 40 41 43 43 43 42 42 42 43 46 48 51 52 49 47 46 46
36 33 33 34 35 35 35 35 34 33 30 32 31 32 33 29 35 39 39 38 39 40 40 42 43 42 41 41 41 41 40 43 43 47 48 47 45 43
26 27 26 27 27 27 29 29 31 33 29 27 32 27 25 25 26 30 37 39 39 39 40 40 41 40 40 40 40 39 40 41 40 39 39 40 40 41
26 25 25 21 23 23 25 25 26 27 26 24 24 23 23 23 25 25 24 22 32 37 39 40 39 39 40 40 40 40 39 38 38 37 35 33 32 32
24 24 24 23 22 23 24 25 25 25 25 23 22 24 24 24 25 25 25 27 26 31 35 36 39 40 40 40 40 40 40 38 37 37 36 36 36 35
25 24 24 23 23 23 24 25 25 24 24 23 21 21 23 24 25 24 24 25 26 23 30 32 34 35 38 39 40 40 40 39 38 37 36 36 36 37
24 23 22 22 22 22 24 25 27 25 25 23 21 21 21 21 20 22 22 23 24 26 28 28 29 30 32 33 36 39 39 39 38 38 38 37 36 37
22 21 22 22 21 23 24 25 24 25 25 25 24 22 20 20 21 21 22 22 21 25 26 25 28 27 28 30 34 35 37 36 38 38 38 37 37 37
22 22 21 19 22 22 24 25 25 26 26 26 24 24 23 22 22 22 22 22 22 24 25 23 23 25 27 27 32 34 35 35 34 34 35 35 36 36
24 23 22 20 22 22 23 26 26 26 26 25 25 26 26 25 25 25 25 25 26 27 26 24 20 22 25 26 30 33 35 35 36 35 34 34 34 34
22 22 20 20 22 26 25 25 24 23 23 24 25 28 29 31 30 29 27 27 21 22 25 23 22 21 21 24 27 31 34 34 35 35 35 35 35 34
21 20 21 22 25 25 25 24 22 21 22 22 24 25 24 24 25 25 24 22 22 21 23 22 22 21 18 22 25 26 26 32 34 34 35 36 35 34
19 20 21 24 27 25 25 25 24 25 25 26 24 23 24 25 26 27 26 25 23 23 25 24 22 21 22 21 21 23 24 25 25 28 34 35 36 35
21 22 24 24 24 26 26 27 25 26 26 25 24 24 24 25 27 29 30 31 30 28 27 28 27 25 22 19 22 24 23 22 22 25 26 30 33 35
22 24 22 22 23 24 24 25 24 24 23 22 23 24 27 28 30 29 29 29 31 31 31 32 30 28 27 25 24 24 24 25 24 23 26 31 32 30
21 22 21 21 22 23 22 23 23 23 23 22 23 25 26 26 26 28 27 30 28 25 29 31 31 31 29 29 28 23 26 25 25 28 25 27 31 31
14 17 17 17 17 17 18 20 20 22 21 21 22 23 24 25 25 26 27 26 24 24 24 25 30 31 30 29 25 24 23 24 23 22 30 29 30 30
13 11 14 15 14 16 16 16 17 19 19 20 20 20 21 22 24 24 23 23 22 24 25 29 28 28 28 27 30 26 27 26 22 29 29 28 27 25
7 7 11 14 14 15 15 15 15 16 17 18 18 18 19 22 22 22 22 22 23 24 22 20 22 22 25 21 20 26 26 27 23 24 25 24 27 27
8 5 10 13 13 14 13 13 14 13 13 13 14 15 16 19 20 20 20 20 21 23 21 21 18 19 19 16 17 13 25 14 13 13 15 16 22 28
7 7 4 11 11 13 11 11 9 9 8 8 10 12 13 16 16 19 18 16 15 18 17 16 19 21 21 17 15 11 13 24 19 13 14 18 15 23
1 6 6 6 4 9 8 9 9 7 7 7 7 8 9 13 15 16 15 15 14 11 15 17 22 24 20 20 15 12 15 10 18 24 24 21 15 14
-2 2 -0 -2 1 4 10 7 6 1 5 5 6 7 7 9 13 13 10 11 12 11 14 16 17 20 20 21 15 18 11 10 14 16 13 23 25 25

GFSNE_sfc_dewp_027.txt.gz
Dewpoint
33 33 33 33 32 34 35 35 31 26 26 30 33 32 34 35 35 37 38 39 40 39 40 41 42 43 43 39 41 42 46 50 51 53 53 51 50 48
32 26 26 28 28 29 29 31 32 30 25 33 30 31 32 25 27 31 35 39 39 38 37 39 41 42 41 42 41 41 43 46 49 50 49 48 47 46
25 25 25 26 25 25 26 26 26 27 25 26 30 30 24 23 24 26 27 29 36 39 37 37 38 40 40 40 41 41 41 45 45 46 46 46 46 46
24 24 24 22 23 23 23 24 24 25 24 23 25 24 23 23 23 24 24 25 28 31 36 38 37 38 39 39 39 40 41 42 42 42 43 42 40 40
24 24 23 23 22 22 23 23 24 25 26 25 24 24 24 23 23 24 25 25 24 27 29 33 36 38 39 37 38 40 41 40 38 38 38 38 38 37
25 24 23 22 21 22 21 24 25 26 26 25 24 22 22 23 23 22 22 23 23 22 24 31 33 34 37 39 38 38 40 40 38 37 36 35 36 36
24 23 23 23 25 22 19 20 22 23 25 25 24 24 22 21 20 21 21 22 23 24 25 28 29 30 30 32 33 37 39 39 39 38 37 36 36 36
24 24 23 24 23 22 23 24 23 22 22 23 23 23 23 21 21 21 21 21 20 24 25 24 27 27 28 29 31 33 35 37 38 38 38 37 37 37
24 23 20 18 21 21 23 23 24 26 26 26 24 23 23 23 22 21 21 21 21 23 23 22 23 26 28 26 30 32 33 34 35 36 37 37 36 35
20 20 20 20 21 21 23 26 23 24 26 25 26 26 25 25 24 24 24 25 24 25 25 24 21 22 25 27 29 30 33 34 35 35 35 35 34 34
20 20 20 20 23 26 26 24 23 23 24 25 24 25 26 28 29 28 26 25 20 23 24 23 21 19 21 23 25 29 32 33 34 35 36 35 35 34
20 19 21 22 25 25 25 24 22 21 22 23 23 23 25 24 24 24 23 22 21 18 21 22 22 20 16 20 21 23 24 32 34 34 35 35 35 32
19 20 21 24 23 25 25 25 25 25 25 26 26 26 25 25 25 24 24 23 21 21 23 24 20 20 20 20 20 22 22 22 24 27 34 35 36 35
21 21 23 21 23 24 24 26 25 25 24 23 24 24 25 26 27 28 29 29 28 26 26 26 25 23 22 19 19 21 20 19 20 21 22 29 32 34
20 20 20 20 20 21 23 23 23 22 21 21 21 23 25 27 28 29 30 30 30 32 31 31 28 26 27 23 21 20 20 21 19 22 21 24 26 30
17 17 17 20 18 19 19 20 21 22 21 20 21 23 25 26 26 28 27 29 28 26 29 31 31 30 28 28 26 23 24 24 23 25 23 21 24 30
10 8 11 14 14 15 16 17 17 18 17 19 19 19 21 23 25 26 26 26 23 24 26 27 30 31 30 30 27 25 23 23 22 23 25 23 23 30
10 4 1 5 10 14 13 14 15 14 15 16 16 17 18 20 22 23 23 24 23 23 23 25 28 28 28 27 30 27 26 27 27 27 29 28 26 23
4 1 -4 1 4 13 13 13 12 12 13 13 14 14 15 18 20 20 21 22 22 23 22 20 21 24 24 21 20 26 25 27 26 26 26 26 23 23
6 2 -1 0 5 11 12 11 10 8 8 9 10 11 12 14 16 18 19 16 18 20 18 18 18 18 16 13 16 12 23 12 12 15 17 15 19 25
5 6 -0 3 3 5 1 5 4 6 5 3 6 7 8 11 14 15 15 14 14 16 15 15 16 19 20 13 9 9 14 23 18 14 13 17 15 18
0 5 5 3 -1 -1 -5 -5 1 2 5 5 4 3 5 8 11 12 13 10 11 10 13 16 19 22 17 18 12 3 12 11 17 24 24 20 14 11
0 3 -1 -4 -3 -4 2 -4 -4 -6 2 4 4 5 3 5 9 9 9 9 11 10 12 14 16 18 18 20 14 12 14 10 12 15 13 22 25 25

GFSNE_sfc_dewp_030.txt.gz
Dewpoint
33 32 32 31 29 30 30 30 29 22 19 22 30 34 35 36 33 33 35 37 40 38 38 39 39 41 42 44 42 41 44 48 50 52 53 53 52 50
33 28 26 27 27 28 27 27 28 26 23 25 24 31 32 31 29 30 30 30 32 39 37 36 37 39 41 42 41 41 39 46 50 52 53 53 50 49
25 25 25 25 25 24 24 24 25 25 23 22 25 26 29 28 25 27 28 29 32 32 37 37 36 37 38 40 40 40 41 43 48 50 51 50 48 47
24 24 24 22 23 22 22 22 22 23 23 23 24 25 25 25 25 25 23 22 26 28 31 33 38 36 35 38 40 40 41 41 44 46 48 48 48 48
24 24 24 24 22 21 21 21 22 22 26 26 24 26 25 25 24 24 24 25 23 24 26 29 32 37 38 38 37 38 39 40 41 41 42 42 43 43
25 25 24 23 22 21 21 22 20 22 22 21 23 25 24 24 24 23 22 24 22 21 23 27 31 32 34 39 38 38 38 38 40 38 38 37 38 39
25 25 25 25 26 24 21 20 20 21 22 21 21 21 22 23 21 22 21 21 22 24 23 26 29 28 29 31 33 36 39 39 39 40 37 36 35 36
23 23 23 21 21 22 22 23 22 21 23 23 21 20 20 22 22 21 22 21 20 24 26 25 26 26 28 29 30 31 33 35 39 40 39 37 36 36
19 19 18 17 21 20 22 23 23 25 26 25 25 23 24 24 23 23 22 21 21 23 24 24 26 27 28 26 29 30 32 33 35 36 38 37 36 36
19 19 19 20 21 21 24 26 24 23 23 22 25 24 25 26 26 26 25 24 24 24 25 24 25 26 28 27 28 29 30 33 34 35 36 36 36 35
19 19 20 20 23 26 24 24 23 22 25 25 26 25 25 25 25 28 25 25 23 22 26 26 24 25 25 26 28 28 29 32 33 34 36 35 35 34
20 20 21 21 23 24 25 23 22 21 22 24 25 25 25 26 26 25 24 23 23 21 22 23 21 23 22 23 25 27 29 31 32 32 34 35 36 35
20 20 21 22 21 22 24 24 24 24 23 23 24 25 26 27 26 25 25 23 22 21 22 24 23 22 23 23 24 26 26 27 30 32 34 35 35 34
19 19 20 20 20 20 22 24 22 22 22 21 22 23 24 25 26 29 29 27 25 23 24 28 26 24 23 23 23 26 27 27 28 28 29 30 34 35
18 18 18 18 18 19 18 19 20 20 20 19 19 20 22 25 27 28 29 30 29 29 30 31 28 27 28 25 24 25 26 27 27 29 29 31 31 32
15 14 14 18 14 15 17 18 18 18 18 18 18 20 22 24 25 28 27 29 28 29 30 32 31 30 27 27 26 25 27 28 28 28 28 30 31 31
8 7 9 10 11 13 14 14 15 14 14 16 16 17 18 20 23 25 25 25 25 25 27 29 31 32 31 30 27 27 27 27 28 28 28 28 29 31
9 2 -3 -4 3 11 12 12 12 10 11 13 14 14 15 17 19 22 23 23 23 24 23 25 28 28 29 28 30 28 27 27 28 28 28 27 27 29
5 2 -6 -7 -2 9 11 11 10 9 10 10 11 12 13 15 17 18 20 19 19 21 22 23 24 26 25 23 25 27 25 26 28 28 28 28 27 27
7 3 -0 -1 4 8 9 9 9 7 6 6 8 7 9 12 15 15 15 16 16 18 18 20 21 22 21 21 22 24 23 22 21 21 22 22 23 24
6 7 2 4 5 5 -2 -3 -7 2 5 3 5 5 5 7 12 13 13 10 12 14 14 16 18 20 21 20 19 20 23 23 21 21 20 20 20 22
4 7 7 6 3 2 -4 -9 -3 -5 0 4 4 4 4 6 8 9 11 11 11 12 12 15 19 21 22 21 18 15 21 20 19 23 23 22 21 19
4 5 4 0 -0 -1 3 -1 -2 -7 -3 1 3 5 5 5 7 8 8 10 10 10 10 13 14 17 19 19 18 18 19 19 18 21 23 23 25 25

GFSNE_sfc_dewp_033.txt.gz
Dewpoint
37 37 35 35 33 31 30 29 27 23 19 20 20 23 25 28 31 31 34 33 35 34 39 37 37 38 41 43 43 44 43 43 49 50 54 54 55 55
34 34 31 30 28 30 28 27 25 24 21 18 18 21 23 21 26 27 30 31 32 34 35 38 37 37 39 40 41 42 42 42 43 48 52 54 54 53
29 28 27 27 26 25 24 22 20 20 18 17 17 20 23 24 25 26 27 28 27 32 35 34 37 37 37 38 39 40 40 41 42 44 50 53 53 52
26 26 26 23 25 24 23 21 20 20 19 17 17 19 21 23 25 27 26 23 24 27 28 30 30 34 37 37 37 39 40 40 41 43 45 50 51 50
26 26 25 25 24 23 22 21 20 20 21 19 19 17 17 22 23 24 25 26 23 25 28 29 27 30 35 38 37 36 39 39 40 42 43 43 48 48
26 25 25 23 22 21 21 22 21 22 19 18 16 16 17 18 22 21 23 24 23 20 24 26 27 28 31 34 39 37 38 38 38 40 41 40 40 41
21 19 19 21 23 22 19 19 19 18 19 19 18 16 15 15 16 19 22 23 25 25 24 22 24 26 29 32 32 36 38 38 38 39 39 39 39 39
16 16 16 18 19 21 22 23 22 20 21 19 18 20 18 18 18 19 20 21 20 23 23 23 25 23 26 28 30 31 32 38 38 38 39 39 37 37
16 15 15 15 19 18 20 22 25 25 26 26 24 20 18 19 19 21 22 21 18 20 24 23 26 26 26 23 28 29 31 32 35 38 38 38 37 36
16 17 16 17 18 20 24 21 20 19 22 26 28 24 23 24 23 21 23 27 23 22 23 24 26 27 29 29 27 28 29 31 33 35 38 38 37 36
18 18 18 17 21 24 22 23 19 17 21 22 24 26 27 28 26 26 24 25 24 20 22 25 25 27 27 29 30 27 28 30 32 33 35 37 37 36
19 17 18 19 22 22 23 22 21 18 18 19 20 22 26 27 28 28 24 21 20 25 20 23 19 21 24 29 29 31 31 30 32 34 34 35 35 35
18 17 17 19 19 20 20 22 23 21 22 21 20 20 21 23 25 29 29 26 22 19 20 21 20 23 23 24 28 30 32 32 32 32 32 34 35 35
20 17 19 18 18 18 18 19 19 20 21 21 21 20 22 23 24 26 29 31 29 26 24 25 25 24 23 25 24 30 31 33 32 32 33 33 34 35
21 17 17 17 16 15 16 17 17 18 19 19 19 20 22 25 27 30 31 31 31 30 29 31 29 28 29 26 27 28 29 31 34 34 35 34 34 35
18 16 16 15 14 15 15 15 16 15 16 18 19 20 22 24 25 28 28 29 30 30 33 32 32 31 29 28 27 27 29 31 33 33 34 34 34 35
17 17 14 14 11 12 14 13 11 10 14 17 18 18 19 20 22 25 25 27 27 27 29 31 33 34 33 32 29 29 28 28 30 31 32 31 33 34
15 16 15 15 13 10 13 12 12 8 11 15 16 17 17 19 20 22 23 24 25 26 26 28 31 30 30 30 30 30 28 28 29 30 30 29 29 32
16 16 16 15 14 10 10 10 10 10 9 12 15 15 16 18 19 20 21 21 21 21 23 27 28 29 26 27 28 28 30 30 31 30 29 30 28 30
16 16 16 16 14 11 9 9 9 10 9 8 13 14 15 16 17 17 18 18 18 18 18 20 23 24 24 25 27 29 24 29 29 30 29 30 29 25
18 16 18 16 15 13 14 14 13 12 10 10 12 12 14 13 15 15 17 16 15 14 14 17 21 23 25 27 27 28 29 24 26 29 28 27 25 26
22 19 17 17 17 16 16 15 14 14 10 9 11 13 14 13 14 14 16 16 14 14 14 18 20 23 25 23 22 25 26 29 24 23 24 25 27 24
23 21 21 20 19 17 15 15 13 14 11 8 9 12 12 12 12 13 14 14 12 13 14 16 18 21 21 21 22 24 23 25 25 24 28 24 25 26

GFSNE_sfc_dewp_036.txt.gz
Dewpoint
35 35 30 28 29 28 27 26 27 26 20 20 18 21 20 22 24 26 27 30 34 34 33 32 33 35 36 38 39 42 44 44 45 48 50 52 55 55
32 31 29 27 27 26 24 25 23 22 22 18 17 20 20 17 23 25 25 31 31 34 35 32 33 35 37 38 38 40 42 43 44 45 46 49 51 55
31 30 29 28 26 25 24 23 21 20 18 18 18 20 21 21 21 24 25 26 25 34 34 33 33 32 33 37 38 39 41 40 42 44 43 46 49 53
29 28 26 22 26 25 22 22 20 21 20 19 19 19 20 21 20 22 22 20 23 27 30 28 29 30 32 35 38 38 39 40 40 41 42 44 46 50
28 27 26 25 24 22 21 20 19 19 22 22 19 18 18 19 19 21 22 24 21 29 30 29 30 28 29 33 35 38 38 39 39 40 42 42 42 46
26 25 23 21 20 21 19 19 17 19 20 20 18 17 17 18 18 18 19 21 24 23 28 26 28 28 28 31 33 38 38 39 39 39 40 40 40 41
22 19 19 20 21 21 19 19 19 18 19 18 18 17 17 17 17 18 17 17 19 23 25 24 24 23 25 32 31 33 35 38 38 39 40 40 40 40
18 18 18 19 19 21 22 22 22 21 22 21 22 21 19 19 18 22 20 22 19 22 24 26 27 24 22 24 30 29 31 33 38 39 38 38 39 38
18 17 16 14 19 18 20 22 25 24 26 25 23 21 24 22 21 21 19 19 20 23 23 24 26 26 26 19 28 28 29 31 33 37 39 37 36 37
19 19 19 18 18 20 20 21 20 21 19 20 24 22 21 22 25 26 25 24 23 20 24 23 25 27 28 28 29 27 28 29 31 33 37 38 37 37
20 19 18 17 19 21 21 22 20 18 20 20 21 23 24 25 28 26 25 23 24 20 25 25 25 26 28 30 31 30 28 29 31 31 33 37 38 37
21 19 20 17 19 20 21 21 22 18 16 17 19 20 22 22 28 28 25 24 22 21 20 23 20 22 24 28 28 31 31 30 31 31 32 35 37 39
21 19 19 18 18 19 18 21 21 18 19 19 19 20 20 22 23 25 28 30 26 22 20 22 20 20 23 24 29 29 31 33 32 31 32 33 35 36
22 21 22 17 18 17 17 17 18 20 21 22 22 21 23 24 26 28 30 30 29 27 27 28 24 23 25 25 23 28 30 31 33 32 34 32 33 33
24 21 18 16 15 14 14 15 17 19 19 20 20 20 22 24 27 30 32 34 32 31 28 30 29 28 28 27 29 27 29 30 33 33 34 33 32 32
22 20 19 17 16 15 16 15 17 16 17 19 20 21 22 23 25 28 29 30 30 32 31 31 32 31 29 28 26 28 27 31 31 33 33 34 32 33
22 22 20 18 16 14 16 15 15 13 13 18 19 19 20 20 22 25 25 27 28 28 30 32 33 32 32 34 30 27 28 29 32 32 32 30 32 33
20 22 22 22 20 15 15 15 15 13 11 14 17 17 18 20 20 22 23 24 25 26 28 30 33 31 32 31 30 32 28 29 31 31 30 32 30 33
21 22 23 23 22 16 14 14 14 14 14 12 15 16 17 17 19 21 21 21 22 22 23 27 30 30 26 26 28 28 33 29 31 33 30 30 29 34
21 22 22 22 20 16 15 14 15 16 15 13 15 16 17 17 18 17 19 20 19 18 19 20 23 23 24 25 29 30 26 32 32 32 30 32 32 25
22 21 23 21 20 18 20 20 18 18 17 16 16 15 17 15 15 16 17 16 16 15 15 17 20 24 25 28 29 29 29 24 28 31 28 30 28 27
24 22 22 22 22 21 22 21 20 19 18 15 16 17 18 17 15 15 16 17 15 15 15 19 21 22 24 24 25 27 27 29 25 25 26 26 28 28
27 24 25 24 23 23 20 20 19 20 17 15 15 15 16 16 14 15 15 14 12 13 15 17 20 22 22 21 22 25 26 26 28 27 28 24 25 26

GFSNE_sfc_dewp_039.txt.gz
Dewpoint
39 35 34 35 32 32 31 28 28 27 23 22 23 23 24 25 27 28 28 29 34 34 33 33 33 33 32 32 34 37 39 39 42 45 46 47 49 55
34 33 32 32 30 30 27 27 24 24 23 20 19 23 24 19 24 27 26 31 31 33 33 33 35 33 32 32 33 36 38 39 40 43 44 45 47 49
33 32 31 30 29 26 26 25 24 22 21 21 21 23 23 24 23 24 25 26 25 29 32 33 35 34 32 31 31 32 36 38 39 41 42 44 46 46
29 27 25 20 25 24 23 21 22 21 20 18 21 22 22 23 24 24 20 18 22 25 31 32 33 33 33 33 32 33 35 38 39 40 40 42 44 45
25 25 24 24 23 21 21 21 20 17 20 21 21 22 21 22 21 21 21 22 18 26 29 31 33 33 33 32 32 32 35 38 39 40 40 42 42 42
24 24 22 21 21 21 19 19 18 18 19 20 20 19 18 21 21 21 21 23 22 15 24 30 33 32 33 33 32 33 35 39 39 39 39 40 39 40
23 20 20 21 20 21 18 19 19 18 19 18 18 21 22 22 21 21 23 21 23 25 24 24 24 28 30 32 30 31 31 35 38 38 39 40 39 39
21 20 19 23 22 23 22 22 22 20 21 25 23 21 18 18 24 25 25 22 20 25 26 28 29 30 28 29 33 30 30 31 34 36 39 38 38 38
22 20 18 14 21 19 22 22 22 23 24 24 25 24 24 23 21 22 21 24 24 24 25 25 28 28 28 24 30 28 28 29 30 33 38 37 36 36
23 21 20 19 20 20 18 19 19 19 19 19 23 20 20 20 22 21 24 24 24 23 23 24 28 28 29 28 30 30 29 29 29 31 35 37 36 35
22 21 20 19 21 20 18 20 17 15 19 22 20 22 25 26 26 26 27 24 25 22 26 26 30 28 29 31 33 33 31 29 31 31 30 37 37 36
23 20 23 18 19 19 20 19 19 16 13 14 17 20 23 23 27 26 28 27 25 24 22 24 25 24 25 31 31 33 34 31 30 30 29 31 38 37
22 21 21 21 19 18 18 19 21 17 18 19 20 21 22 23 24 25 27 28 27 27 27 24 23 22 21 24 28 31 33 35 34 32 30 32 35 38
23 23 24 21 19 18 17 16 17 19 22 21 22 21 22 23 24 26 31 33 32 28 27 28 27 23 23 25 24 28 32 34 35 35 36 34 31 33
25 24 21 20 18 18 15 16 19 19 18 18 19 19 21 23 24 27 29 30 33 34 27 30 29 26 27 27 28 29 27 31 34 35 36 35 35 35
26 25 23 22 21 21 19 19 19 19 16 17 18 19 21 23 23 26 27 28 29 31 33 32 31 30 28 28 27 27 28 29 33 34 35 36 36 36
24 24 23 21 20 19 19 17 18 17 15 16 17 17 16 18 22 24 24 25 26 26 30 33 32 32 31 30 30 29 28 29 31 31 30 31 33 36
22 23 24 25 23 21 19 18 18 17 16 15 16 16 16 16 17 21 22 23 23 24 26 28 31 31 30 30 29 30 32 28 32 31 31 31 30 33
22 22 24 25 24 20 19 17 17 18 18 17 16 17 17 16 19 18 20 21 20 21 22 25 27 26 25 26 28 28 32 33 32 32 30 30 33 31
23 22 23 24 23 19 18 18 18 19 19 17 18 19 19 17 17 15 16 18 17 18 17 19 23 22 23 24 28 28 27 32 31 32 30 32 30 29
25 25 27 24 22 21 23 23 22 21 20 19 19 18 19 17 16 15 16 17 17 13 14 17 20 24 24 28 27 27 28 26 28 30 29 29 26 27
28 26 26 24 25 24 25 24 23 22 21 19 19 19 20 18 17 16 16 15 14 14 14 17 22 23 27 25 27 26 27 28 26 26 26 26 27 27
30 28 29 29 28 26 23 23 22 22 21 19 18 18 18 18 17 16 16 14 13 12 12 15 19 24 24 20 22 26 25 26 26 25 26 25 26 27

GFSNE_sfc_dewp_042.txt.gz
Dewpoint
38 38 35 35 35 33 33 32 29 25 24 24 23 24 27 25 28 26 26 31 33 33 33 33 33 32 32 33 33 34 33 34 36 38 39 42 45 48
35 34 34 34 33 32 30 30 29 26 22 22 21 23 24 22 25 25 25 29 30 32 32 33 34 34 34 34 34 33 32 31 33 36 38 40 44 46
33 32 32 31 31 30 29 27 25 24 20 20 20 22 22 23 24 25 25 23 23 30 32 32 33 34 35 35 34 32 31 30 31 34 37 39 42 44
31 29 28 23 26 25 25 24 22 21 20 18 20 21 22 23 23 23 22 19 21 25 29 31 32 33 34 34 34 34 33 32 33 34 38 39 40 43
29 27 26 25 23 24 22 20 21 19 21 19 18 20 21 22 21 22 22 23 22 27 27 29 31 33 35 36 35 34 33 34 35 37 39 39 40 41
27 25 25 23 22 20 18 19 18 19 19 19 19 19 19 21 24 23 22 23 22 21 25 28 31 31 33 35 34 34 34 33 37 39 39 38 39 40
25 24 22 25 25 23 18 20 21 20 18 18 18 20 22 20 18 23 25 24 23 25 25 25 26 27 29 32 33 34 34 33 36 36 37 38 39 38
24 23 22 25 24 27 26 22 23 20 20 22 22 21 20 22 25 22 21 20 19 25 25 24 27 27 29 31 34 35 35 32 34 34 36 39 38 37
24 23 21 17 24 21 22 21 20 22 24 23 22 25 23 20 20 19 19 20 21 23 24 22 25 26 28 25 33 33 34 31 31 32 35 38 36 37
25 23 22 21 22 20 20 18 18 19 18 17 22 19 18 19 21 21 22 23 24 24 24 22 25 26 28 28 31 33 34 32 31 31 32 36 36 35
24 24 23 20 21 21 19 19 18 17 19 20 19 20 25 26 26 25 25 24 22 23 25 25 24 27 28 28 29 32 34 32 31 31 31 34 37 36
25 23 23 20 19 20 19 19 17 18 17 15 18 21 22 24 27 26 27 25 24 23 25 26 26 29 26 30 31 29 28 32 31 31 31 31 37 37
25 24 25 22 22 20 19 19 19 19 18 19 20 20 23 23 23 24 25 27 27 26 27 29 27 25 25 24 28 30 28 28 28 28 31 31 35 38
24 24 25 24 22 21 19 19 18 20 19 18 18 20 21 22 23 24 26 27 28 31 33 30 28 27 25 24 25 30 29 26 29 28 27 30 32 36
25 26 25 24 24 22 22 21 19 20 18 14 17 18 19 21 23 24 25 26 26 28 33 30 27 27 25 24 26 29 30 30 27 26 27 28 29 31
25 27 25 23 20 20 20 22 22 20 18 16 16 18 19 20 20 23 22 24 24 25 31 32 29 28 25 25 28 28 29 28 30 26 26 27 31 30
22 21 21 22 22 21 22 21 21 20 18 16 16 17 18 18 18 20 23 23 22 22 23 27 31 32 29 28 27 26 29 31 31 29 27 26 27 29
21 19 19 20 22 20 18 19 19 18 19 18 17 18 18 17 17 18 21 22 20 20 21 23 28 26 30 29 29 26 29 31 31 29 27 24 25 26
23 19 20 23 22 21 20 19 17 17 17 18 15 16 17 18 17 18 18 19 18 18 20 23 24 22 22 23 26 28 27 30 30 28 28 29 30 28
25 23 22 24 24 22 20 20 18 16 16 17 13 13 12 15 18 15 16 17 17 17 17 19 21 21 21 22 25 24 28 25 24 28 25 25 28 31
24 25 23 24 25 22 20 20 15 14 14 10 13 13 10 15 13 17 13 15 15 15 14 16 20 23 24 25 24 26 22 27 26 24 26 26 25 25
24 25 25 25 26 26 22 20 18 19 16 16 13 9 11 11 13 11 12 9 15 15 14 15 20 23 26 26 23 20 22 22 26 27 27 25 25 24
27 26 25 25 26 26 23 20 22 20 19 17 15 12 8 8 15 14 12 13 15 13 13 12 17 20 25 23 22 25 21 22 24 24 22 27 27 27

GFSNE_sfc_dewp_045.txt.gz
Dewpoint
36 35 34 34 35 33 34 32 30 26 25 25 24 25 27 26 27 26 26 29 33 33 32 31 29 29 30 30 31 33 34 34 35 34 35 36 38 40
34 32 33 33 33 32 31 31 30 27 22 22 21 22 23 21 24 25 26 28 29 31 31 33 32 29 29 30 30 31 32 34 34 33 33 33 35 39
32 31 30 29 27 27 26 25 23 22 19 20 21 22 22 23 23 25 25 24 24 29 30 31 32 32 33 33 33 33 34 34 32 33 32 33 34 38
31 29 27 23 23 24 23 20 20 20 20 18 19 20 21 22 22 23 22 21 23 26 31 30 31 31 32 32 34 35 34 35 34 32 31 32 34 38
26 26 24 23 21 21 19 19 19 18 20 19 18 20 20 21 21 23 24 24 24 26 27 29 30 31 32 32 34 35 35 36 35 35 34 35 38 39
26 26 25 22 19 18 18 18 18 20 20 19 18 18 19 21 23 21 23 24 25 23 25 27 29 29 30 31 32 34 35 35 35 35 36 38 38 38
25 25 22 26 29 24 18 19 20 20 20 19 19 20 20 20 21 26 20 20 19 22 23 25 24 25 27 29 30 34 36 36 35 35 35 36 36 37
23 24 23 24 26 26 23 22 21 18 18 19 19 20 20 23 21 19 19 18 17 22 23 22 25 24 25 27 30 34 35 36 36 34 35 36 37 38
24 23 22 21 23 20 20 20 19 19 23 22 20 20 20 19 18 18 19 20 20 22 23 23 25 24 25 24 30 32 34 34 35 34 33 35 37 37
24 23 22 21 21 20 19 19 18 19 19 17 19 17 17 19 22 22 23 24 24 24 25 24 24 24 26 27 31 31 33 33 34 33 33 33 36 36
25 24 24 21 21 20 20 19 18 18 18 20 20 22 24 24 25 27 24 23 21 21 25 24 23 24 25 26 28 31 33 34 33 33 33 33 34 36
24 24 23 20 20 21 19 18 17 16 18 17 18 20 22 24 26 25 24 22 23 22 24 27 26 24 22 26 29 29 28 30 33 33 32 33 32 36
25 24 24 23 23 23 22 20 17 19 20 19 19 18 20 22 22 24 24 25 24 23 25 29 26 25 26 24 26 28 30 29 27 28 32 32 32 36
24 24 24 26 25 24 23 23 22 22 16 17 17 17 18 19 20 22 24 25 26 26 28 31 29 26 27 24 24 29 31 31 24 25 24 27 34 35
24 24 26 26 25 25 25 25 22 19 16 12 14 16 17 19 20 21 22 23 25 26 28 31 29 27 24 26 25 27 29 30 27 25 23 24 29 33
24 24 23 24 21 21 21 22 22 19 17 14 13 15 18 18 18 19 19 22 22 22 24 27 31 30 25 24 27 26 27 28 32 24 23 24 27 31
25 25 22 19 20 22 21 21 20 19 17 13 13 15 17 18 17 18 19 21 18 19 20 22 27 26 31 29 26 25 26 27 32 28 27 24 26 31
23 17 10 9 15 20 21 18 17 16 17 16 12 15 15 15 17 18 19 18 18 17 18 22 24 22 25 28 29 26 27 30 30 26 26 23 24 29
18 17 12 14 16 22 23 19 17 17 16 15 13 11 13 16 16 17 16 17 16 17 18 20 21 21 19 18 27 27 26 29 29 25 29 29 25 29
26 22 19 19 19 22 23 20 17 15 14 14 9 5 3 9 10 15 15 9 15 16 15 16 17 20 21 20 22 25 28 23 27 27 27 28 29 30
24 24 24 21 22 22 21 19 13 10 8 5 5 7 3 8 7 12 11 10 9 14 13 13 15 19 26 26 22 22 21 27 27 26 27 24 23 27
25 24 24 24 23 24 24 20 16 10 9 7 6 8 -0 3 4 7 6 7 12 11 13 13 16 21 24 25 24 19 20 21 25 27 28 27 26 22
27 26 25 24 25 25 24 21 20 18 16 14 12 6 -1 4 6 8 5 13 12 11 11 11 14 17 20 21 22 23 21 20 23 22 23 27 28 29

GFSNE_sfc_dewp_048.txt.gz
Dewpoint
34 33 33 33 34 33 35 35 34 26 24 25 22 23 24 25 26 26 25 28 28 30 30 28 29 29 29 30 31 31 32 32 34 36 36 36 35 36
33 32 31 32 31 29 28 27 27 24 20 21 20 22 22 20 23 23 25 27 28 29 31 29 29 29 29 30 30 30 30 31 31 34 35 36 34 35
31 30 29 28 26 25 24 23 21 20 17 19 20 21 20 21 21 23 24 24 25 27 28 29 31 30 31 31 29 29 30 31 33 34 35 35 34 34
30 27 26 23 22 24 22 19 19 19 19 17 18 19 19 20 21 22 22 23 24 26 27 27 27 28 30 32 32 32 33 33 33 33 34 34 34 33
26 24 24 25 22 22 19 19 19 18 19 19 18 19 19 20 21 23 23 23 23 23 23 24 24 26 29 29 30 30 31 33 35 36 36 35 34 33
26 26 25 23 20 19 18 18 18 19 20 19 19 19 19 21 22 21 22 21 19 18 21 23 25 27 27 28 28 29 30 32 35 36 35 35 35 36
26 25 25 24 28 26 19 19 20 19 19 18 17 19 19 19 19 23 19 17 18 20 20 21 24 23 25 28 28 29 29 32 35 35 36 35 35 36
23 24 24 26 26 27 25 24 21 19 18 17 19 18 18 21 21 19 18 18 18 21 23 22 24 23 25 26 28 29 30 32 33 34 35 35 35 35
23 24 23 22 24 20 21 20 19 20 21 20 19 18 17 16 17 18 20 21 22 23 23 22 24 23 25 25 28 29 30 33 33 34 34 34 34 35
25 25 23 22 22 20 19 19 19 18 18 17 19 18 18 20 22 24 26 26 24 23 24 22 24 24 26 26 29 30 31 33 34 34 33 34 33 34
25 25 24 22 23 23 20 20 18 17 17 20 20 22 22 23 24 24 22 21 19 20 23 24 23 24 26 26 27 30 32 32 32 34 34 34 33 34
25 24 26 22 23 22 20 19 17 16 16 18 18 19 20 21 23 23 23 21 21 19 22 24 22 26 23 23 24 26 26 30 32 33 34 34 33 33
25 24 24 25 24 24 24 21 18 19 20 20 18 19 19 20 20 20 22 23 22 20 23 26 26 27 27 24 24 25 26 29 31 30 31 34 33 34
25 25 24 26 25 27 26 25 25 24 19 17 17 17 17 17 18 20 21 23 24 23 25 28 26 28 26 24 23 25 28 31 31 26 25 27 31 34
26 26 25 25 25 26 27 26 23 21 17 11 15 15 16 18 20 20 20 21 23 24 24 25 26 26 28 26 25 24 27 28 32 25 22 24 30 32
26 27 24 24 20 21 21 23 22 20 18 16 14 14 17 18 18 19 18 19 21 20 22 23 25 25 24 27 27 26 25 25 27 29 22 24 29 31
25 23 24 22 22 22 21 22 22 20 18 15 13 13 16 17 17 19 19 18 17 18 18 20 24 24 28 29 27 26 26 26 29 27 24 24 29 32
26 21 23 18 19 19 19 20 21 18 19 17 13 15 13 13 15 17 18 15 15 16 18 18 20 21 22 27 26 24 25 28 30 27 28 26 28 31
25 20 19 16 16 18 19 19 20 19 18 17 16 13 11 14 13 15 15 15 14 16 17 17 17 18 17 14 23 28 23 26 27 28 28 28 28 29
26 25 22 20 19 19 20 20 21 16 16 15 13 8 2 8 9 11 13 6 11 15 14 14 14 17 17 17 20 21 28 23 26 27 26 27 29 30
25 26 25 24 21 21 20 19 18 15 14 10 10 7 1 8 6 8 8 8 8 14 12 11 13 20 24 26 18 19 19 27 28 26 27 24 22 27
26 25 25 26 24 22 21 21 17 16 15 13 7 2 -1 3 3 3 2 4 10 9 12 12 15 17 23 23 23 17 19 20 24 27 28 28 24 20
27 26 26 25 25 24 23 23 20 20 19 16 13 10 0 2 6 4 3 8 10 9 10 10 12 15 16 20 22 22 23 20 23 22 22 28 29 29

GFSNE_sfc_dewp_051.txt.gz
Dewpoint
34 32 32 33 33 33 34 33 32 23 23 24 20 22 23 23 23 23 24 26 26 27 28 28 29 29 29 29 30 31 32 33 33 34 34 35 36 38
32 31 31 32 30 28 27 27 29 26 20 22 20 21 21 20 21 22 23 27 27 28 27 28 29 30 30 31 30 30 31 31 32 32 33 33 34 36
31 30 29 29 26 25 25 23 22 20 17 17 20 20 20 19 20 22 23 23 24 27 28 27 28 28 28 29 29 30 30 30 30 31 32 34 35 37
31 27 26 24 24 24 23 20 20 19 19 17 18 19 19 19 20 21 21 22 24 26 25 24 24 25 26 26 28 31 31 31 31 31 32 32 34 35
30 25 24 25 24 24 22 20 19 18 19 19 19 19 19 19 20 21 22 23 23 23 22 23 25 26 27 27 29 28 28 30 32 33 34 34 34 34
27 26 25 25 24 21 19 19 18 18 19 19 18 17 18 20 21 20 20 20 18 17 21 23 25 26 27 28 28 29 29 29 30 32 35 36 36 36
27 26 25 25 26 24 20 19 19 19 19 18 16 15 17 18 19 20 18 17 18 20 20 21 23 23 24 26 28 29 29 29 30 32 34 35 35 36
25 24 24 27 27 29 29 25 22 19 18 17 16 16 17 18 18 17 17 18 17 21 22 22 24 23 24 25 27 29 30 31 31 31 33 34 35 34
24 23 24 22 26 24 26 24 22 22 22 18 17 17 17 17 17 19 20 21 22 23 23 21 22 22 23 24 28 29 30 31 31 32 33 34 34 33
24 25 25 24 23 22 20 20 19 19 18 16 18 18 19 19 20 22 24 23 22 21 22 20 22 22 24 25 28 30 30 32 33 33 34 34 34 34
24 25 28 24 25 27 22 21 20 19 17 19 20 21 22 22 20 20 19 20 17 18 20 21 21 22 24 25 27 29 31 31 32 31 33 34 34 34
26 26 29 26 25 26 22 20 19 18 16 16 18 19 19 20 21 21 20 18 18 17 21 20 20 24 23 22 24 25 25 27 31 32 33 33 34 33
26 26 25 27 27 25 25 22 20 20 19 20 20 19 19 19 19 19 20 20 18 18 20 24 22 23 25 25 24 24 24 26 29 32 32 32 33 32
26 26 26 27 28 27 25 26 26 24 22 20 18 17 17 17 17 19 21 21 22 22 22 24 23 24 23 22 22 24 24 27 31 31 29 29 30 32
28 28 28 28 30 27 27 28 25 22 19 13 16 16 16 17 19 20 20 20 21 22 23 23 23 23 24 23 24 25 25 26 28 29 30 27 26 31
29 29 27 28 25 24 24 25 23 21 20 18 15 14 16 17 16 18 16 18 18 18 20 22 22 23 22 24 27 24 25 25 26 30 27 24 27 31
27 29 25 25 24 24 23 22 21 20 18 15 14 14 15 16 15 17 18 17 13 15 16 18 20 21 23 27 23 24 24 25 29 28 25 26 29 31
27 25 23 24 24 22 21 22 19 18 20 17 15 15 15 14 14 16 17 13 13 14 15 17 18 17 21 24 29 24 24 26 29 28 27 26 25 30
28 24 24 23 22 21 21 20 19 18 19 17 16 14 14 13 12 13 12 13 13 14 15 16 16 17 15 12 20 28 24 24 26 25 25 26 26 27
29 25 21 22 22 22 21 20 20 20 16 15 13 15 10 9 9 11 12 5 9 13 14 12 13 16 16 16 17 17 27 25 23 25 26 27 29 31
27 27 25 25 23 23 22 21 20 18 11 9 14 13 8 9 6 8 7 7 6 14 11 10 11 17 22 24 17 16 19 25 27 25 24 23 22 24
29 26 27 26 26 24 23 21 19 16 13 13 13 13 9 6 6 3 -1 2 9 8 11 12 13 15 19 22 21 19 20 19 23 27 27 27 24 18
29 27 26 26 27 26 24 22 21 19 18 16 17 14 9 5 6 4 1 6 9 8 9 9 11 13 15 17 19 19 20 20 22 21 20 27 28 29

GFSNE_sfc_dewp_057.txt.gz
Dewpoint
38 37 35 35 35 34 34 33 30 26 21 23 24 26 26 25 23 25 23 23 25 27 27 28 29 30 30 30 31 32 33 33 34 35 35 34 35 37
35 36 35 34 33 33 33 32 31 27 24 24 21 23 23 18 21 24 22 23 24 25 27 28 29 29 29 29 29 30 30 31 32 32 33 34 36 36
35 35 35 34 32 32 31 29 27 25 24 23 20 21 23 22 21 21 20 18 19 23 25 27 27 26 26 27 27 28 28 29 30 30 31 32 33 35
34 34 34 31 33 32 29 28 25 26 24 20 20 20 21 23 22 20 15 14 19 20 24 26 26 26 27 28 28 29 29 30 29 29 30 32 32 34
34 34 33 34 32 30 28 26 26 26 23 21 19 20 21 21 19 17 15 18 15 20 21 22 24 26 27 27 27 28 29 30 30 30 30 30 30 31
35 34 34 33 31 29 27 26 26 24 22 21 20 19 19 19 18 13 13 15 14 14 19 22 24 25 25 25 26 28 29 30 30 30 32 32 32 32
35 34 34 34 32 30 25 26 25 23 21 22 19 19 18 17 15 13 14 14 16 17 18 18 17 18 20 23 24 26 27 29 30 30 31 32 32 33
32 33 32 31 31 32 33 32 29 26 27 22 20 19 18 19 16 14 15 15 14 18 17 17 17 16 19 21 24 26 27 29 30 30 31 32 33 33
32 31 29 26 29 27 29 30 30 31 26 25 24 22 23 19 13 15 15 16 16 16 17 17 19 19 21 18 24 26 28 30 31 31 32 33 34 34
32 32 31 30 29 28 26 27 27 25 25 23 23 22 21 16 17 19 21 21 18 16 16 18 19 21 22 23 25 27 29 29 30 32 32 32 33 33
31 31 30 30 30 30 27 29 26 24 24 25 24 25 24 23 24 22 21 19 19 15 16 20 20 20 21 24 25 26 27 28 29 29 30 30 32 32
32 31 31 30 30 30 31 32 29 25 22 21 21 20 21 20 23 21 20 20 18 17 14 19 16 18 19 22 25 26 27 28 29 29 30 30 30 33
32 31 31 30 30 30 31 32 31 27 25 22 21 19 17 19 20 20 19 20 19 17 16 19 17 17 17 19 21 24 26 30 30 31 31 31 31 31
32 32 32 31 31 31 31 31 29 28 28 27 25 23 23 23 21 20 20 21 20 20 18 22 20 19 19 19 19 22 26 30 31 31 32 32 32 32
34 34 32 31 31 30 31 30 30 30 30 26 25 23 23 23 22 22 21 21 20 19 18 20 21 19 19 19 20 22 24 28 30 30 31 31 32 33
31 33 33 32 32 32 31 31 32 32 30 28 26 24 24 24 23 22 22 21 19 19 20 20 20 20 19 18 19 22 25 27 30 30 29 30 33 33
31 32 32 32 30 29 30 30 30 31 29 29 28 26 24 23 23 23 21 20 19 17 17 17 17 19 21 23 23 24 27 27 30 28 27 27 29 32
29 29 31 32 30 29 29 28 28 28 28 27 28 26 25 24 23 22 21 21 18 17 17 17 18 20 21 24 25 26 25 26 27 27 26 27 26 30
28 29 30 32 30 28 28 27 26 28 29 28 26 26 26 23 23 22 22 20 18 17 17 17 16 18 19 19 23 25 25 25 26 27 27 27 29 30
27 28 30 32 31 30 28 28 27 27 27 27 27 27 26 24 24 21 21 20 18 16 16 14 13 15 18 20 21 24 25 26 26 25 25 27 29 30
18 18 26 30 30 29 29 30 29 30 29 28 27 26 26 24 24 22 21 18 17 15 14 14 14 16 17 22 23 25 30 26 27 25 25 25 26 26
15 15 17 20 24 30 32 31 30 28 28 26 27 27 26 24 24 23 22 21 17 17 15 15 13 14 18 19 20 23 25 28 27 26 26 27 26 24
12 12 14 16 19 21 26 30 29 29 27 26 26 26 25 23 23 24 23 20 17 16 15 14 12 13 14 17 18 20 22 24 25 24 26 26 26 27

GFSNE_sfc_dewp_060.txt.gz
Dewpoint
41 39 35 33 34 32 31 30 29 28 23 23 23 26 26 27 27 26 26 28 27 26 26 27 29 29 30 31 31 31 32 32 32 33 34 35 35 36
37 37 35 33 34 32 31 31 30 27 25 23 22 26 25 21 25 24 25 26 27 26 24 26 27 28 29 29 29 29 30 30 31 31 32 33 34 35
36 35 35 35 33 31 32 30 29 27 24 24 24 25 26 26 25 25 24 23 19 26 24 24 25 27 28 28 28 28 29 29 30 30 31 31 33 34
35 35 34 30 34 34 31 31 29 28 25 24 26 23 24 25 25 25 20 15 16 22 24 23 25 25 26 27 28 28 28 29 29 30 31 31 31 32
34 34 34 34 33 32 31 29 28 24 25 25 23 23 23 23 23 22 21 19 13 20 25 25 22 24 25 27 27 28 28 28 29 30 31 31 31 31
35 35 34 33 33 32 30 30 27 26 26 24 22 21 21 22 21 18 17 14 14 11 20 24 24 24 26 26 26 26 27 28 29 30 31 32 32 32
35 34 35 35 35 34 28 28 28 26 24 23 22 21 21 20 18 18 16 13 16 18 17 17 18 19 20 23 25 25 26 27 28 29 30 31 32 32
33 33 32 35 35 35 33 32 30 27 26 25 25 26 23 21 19 19 15 13 14 18 18 18 18 18 18 19 27 25 26 27 28 30 31 31 32 32
33 32 29 26 32 32 32 32 32 32 29 28 28 28 26 21 21 19 16 16 16 18 18 17 20 19 19 16 27 27 26 28 30 30 32 33 33 34
31 31 31 30 30 31 31 29 29 28 30 28 28 25 23 23 22 19 20 21 20 19 19 20 20 20 22 22 26 27 27 28 28 29 30 31 31 32
30 30 30 30 30 34 31 31 28 29 30 29 29 29 27 25 24 22 22 21 22 16 18 19 20 20 20 22 25 28 28 29 30 30 30 30 31 32
32 30 31 31 31 32 34 32 32 28 28 27 25 25 26 25 26 23 22 21 20 19 18 19 16 18 20 22 23 24 27 27 30 31 32 32 32 32
32 32 32 32 32 32 32 33 34 31 29 28 26 25 23 21 19 21 21 21 21 18 19 20 18 18 19 18 19 22 27 28 29 31 31 32 33 32
28 30 32 33 34 33 32 31 31 32 34 34 29 26 25 23 21 21 23 23 21 21 20 22 22 19 19 19 17 20 27 30 30 32 33 32 32 33
29 30 30 31 32 33 33 31 31 34 34 32 30 28 27 25 25 25 24 23 22 22 19 22 22 20 20 19 18 20 23 26 31 32 32 30 31 33
27 30 29 28 29 31 32 34 33 34 33 32 30 28 29 29 26 25 25 24 23 22 21 22 22 21 20 19 19 21 23 26 30 31 30 31 31 33
27 30 29 28 27 28 30 32 35 34 33 33 32 32 31 28 27 27 26 23 22 20 20 19 19 20 20 21 22 22 25 28 29 28 29 28 30 34
28 29 31 32 30 27 29 31 33 31 30 31 31 30 29 28 27 27 25 24 22 20 19 19 21 20 20 23 26 24 27 28 26 26 28 29 27 31
23 24 25 28 32 29 28 30 32 32 31 29 30 30 29 29 29 28 27 23 22 20 19 19 19 19 18 20 26 27 26 25 25 26 27 27 28 30
18 19 21 23 24 28 33 32 32 32 32 29 31 32 31 29 29 24 23 24 22 19 17 15 16 16 17 20 22 25 27 27 25 25 24 27 30 30
16 16 18 18 21 23 26 32 33 32 32 32 31 30 31 29 27 25 23 22 21 18 15 15 16 17 15 21 24 27 32 27 27 26 25 25 25 29
15 14 15 16 17 20 23 26 29 32 32 31 31 31 31 30 27 25 25 25 21 20 17 17 16 14 16 17 19 24 24 27 28 27 26 26 26 23
14 13 14 15 16 17 18 20 22 25 31 30 30 30 31 29 27 26 26 24 21 19 17 16 15 14 13 13 17 19 23 24 23 24 31 25 25 26

GFSNE_sfc_dewp_066.txt.gz
Dewpoint
42 42 42 41 39 37 37 36 34 30 29 30 30 30 32 33 35 34 31 34 34 35 33 33 32 30 28 28 30 31 32 33 33 33 33 33 33 34
42 42 41 41 40 37 38 37 36 32 29 30 29 30 30 25 33 28 29 35 36 36 35 35 35 30 27 28 28 29 31 32 32 31 32 32 34 34
41 40 39 40 39 38 38 37 34 33 30 30 30 29 29 30 30 31 32 30 30 36 36 36 35 32 29 28 27 28 29 30 30 30 31 30 31 33
40 41 41 41 39 38 37 36 34 33 31 29 29 30 29 29 30 29 28 23 26 30 34 34 34 32 32 31 29 29 29 30 29 30 30 30 30 30
41 41 41 39 38 37 37 35 34 32 32 31 29 30 30 29 28 29 28 28 27 32 33 34 34 33 32 32 31 30 30 30 30 30 30 29 29 31
42 41 40 38 37 37 35 35 34 33 32 32 30 29 28 28 29 26 25 28 26 24 26 25 30 31 33 34 33 33 33 32 32 32 31 31 32 30
40 40 39 39 38 37 34 34 33 32 30 29 28 27 26 25 24 25 26 26 27 26 23 21 22 24 24 28 29 30 30 32 33 31 30 30 31 32
39 39 38 37 37 37 36 35 33 32 31 31 30 28 27 27 28 28 27 26 25 26 22 21 22 21 22 24 28 31 30 29 28 29 30 31 32 32
35 34 32 29 32 32 32 34 34 34 32 32 32 31 30 28 28 27 27 27 25 24 21 20 22 22 24 21 29 29 30 31 31 31 31 32 32 32
32 32 31 31 32 32 31 31 32 32 33 32 32 32 33 33 30 28 28 26 25 23 21 20 23 23 25 25 28 28 29 29 30 31 31 32 31 32
31 31 29 27 30 31 28 27 28 30 33 34 35 35 34 34 32 29 26 26 23 23 23 23 22 23 23 23 23 28 29 30 31 31 31 32 32 33
27 25 28 28 30 29 27 28 27 27 28 29 29 32 35 34 31 28 27 25 24 21 23 23 22 22 19 23 23 24 25 28 30 31 31 31 32 31
23 23 24 27 27 27 27 24 24 25 25 26 28 29 34 33 32 27 26 25 24 22 23 24 22 22 21 20 21 23 24 26 26 28 31 32 33 33
22 22 23 25 26 26 26 27 28 28 28 28 28 27 31 34 33 28 27 26 25 24 25 25 24 24 22 20 19 22 23 25 26 26 27 32 34 32
22 22 22 23 25 26 28 29 28 27 26 28 28 26 27 33 32 31 32 28 26 26 26 26 26 24 23 20 20 21 21 23 25 26 29 31 27 30
21 20 21 23 24 23 24 25 26 26 30 29 28 29 30 33 32 32 29 26 26 24 26 26 25 25 23 23 21 20 22 19 23 25 32 26 26 29
19 20 21 21 20 20 20 21 22 23 24 30 30 29 29 32 32 32 31 29 26 24 24 26 26 26 26 23 21 22 22 23 24 30 25 24 27 27
19 18 17 17 17 17 18 18 19 20 23 24 30 31 31 30 30 31 30 28 24 25 25 24 24 25 24 25 26 22 22 25 27 25 25 24 24 25
16 17 14 15 16 16 16 17 17 18 22 23 29 31 31 29 27 28 28 27 26 26 26 24 24 23 18 15 21 28 20 23 23 25 27 26 24 24
17 15 14 15 15 15 14 15 16 16 17 20 22 28 26 28 27 26 28 27 27 27 24 22 22 22 20 17 13 17 27 23 24 23 25 24 24 28
15 14 13 13 13 14 14 15 15 15 15 17 20 22 28 25 25 26 27 27 26 27 24 21 22 20 22 20 10 13 19 29 28 24 22 19 21 21
13 13 13 13 12 13 13 13 13 13 13 15 17 20 20 24 25 25 28 27 25 25 23 22 22 21 21 19 16 12 21 24 30 30 28 25 20 14
11 13 14 12 12 12 11 11 11 12 12 14 14 16 16 16 19 28 29 28 27 23 21 21 22 22 20 18 17 17 16 16 21 21 22 28 28 27

GFSNE_sfc_dewp_069.txt.gz
Dewpoint
44 43 42 42 42 42 41 39 35 31 30 31 30 31 31 34 36 38 35 39 38 38 38 36 34 33 32 31 30 29 29 29 31 33 33 33 33 33
43 42 42 42 42 41 41 38 37 34 30 31 30 30 29 28 32 34 31 36 39 38 37 37 37 35 33 31 29 29 28 28 30 31 31 32 32 33
42 42 41 41 40 40 40 38 36 35 32 31 31 30 28 28 29 33 31 32 31 38 37 37 38 37 37 35 31 30 29 29 30 31 31 31 31 32
41 40 39 39 40 40 39 38 35 34 32 30 30 30 29 29 29 29 29 28 28 33 37 37 37 37 36 35 33 33 31 30 31 31 31 31 31 30
41 40 41 41 40 40 39 36 35 34 33 32 31 31 31 31 30 30 29 30 27 32 35 35 36 37 36 35 34 34 33 33 33 33 31 31 31 30
42 43 42 41 40 37 36 35 35 34 33 32 32 31 30 30 29 27 25 27 26 26 29 27 29 31 35 36 36 35 35 34 34 34 33 33 33 31
41 40 40 40 40 38 37 35 34 33 32 32 31 29 27 26 25 27 27 27 27 29 26 24 22 22 23 27 29 33 33 30 31 33 33 33 32 32
38 38 38 39 36 36 36 34 35 34 33 32 32 31 31 27 28 30 30 28 26 27 26 23 22 21 22 23 27 31 31 31 31 31 31 31 31 31
36 33 32 31 33 30 30 30 30 32 31 31 30 31 31 31 30 30 30 31 29 29 23 20 21 20 22 21 29 31 28 30 31 31 32 32 31 32
32 30 29 27 28 29 27 26 26 27 28 29 31 32 32 33 33 33 32 33 32 25 22 20 21 21 23 25 29 31 29 32 31 30 31 31 31 32
27 26 25 25 29 28 26 24 22 20 22 27 29 30 31 31 31 33 32 30 28 25 24 22 22 22 23 22 24 27 30 29 31 31 30 30 30 31
23 24 26 26 27 27 24 23 23 23 24 24 25 26 27 27 29 33 33 30 28 23 24 22 21 21 18 22 22 22 22 25 28 29 30 30 31 30
23 22 22 24 23 24 26 25 26 27 27 27 27 27 26 26 28 32 32 31 29 26 24 22 21 21 20 20 22 22 21 23 23 24 27 29 31 32
21 22 22 22 24 26 26 27 27 26 27 26 27 27 27 27 27 29 32 31 31 30 26 25 21 22 21 20 19 22 21 22 22 23 24 29 32 32
22 20 21 22 24 25 23 22 23 23 22 22 22 25 28 28 28 31 33 29 29 28 26 26 24 24 23 22 19 20 19 22 23 21 25 26 28 27
21 20 20 22 23 21 20 20 20 20 20 20 22 22 25 29 30 31 31 30 29 28 27 27 26 26 23 23 22 21 21 19 21 22 27 25 24 26
18 19 20 20 18 17 17 17 17 17 17 18 18 21 22 30 30 31 31 30 27 25 24 25 26 26 25 24 21 22 22 22 22 23 27 23 24 24
18 15 10 9 13 15 15 14 14 14 16 16 17 19 20 27 30 31 31 29 27 25 24 24 25 24 24 25 26 22 22 20 23 27 24 21 24 25
16 14 7 5 7 14 14 13 12 13 15 14 14 17 20 19 29 29 29 27 26 26 23 24 24 22 18 17 22 28 22 21 20 20 22 26 20 23
17 13 8 6 9 12 12 12 12 12 12 12 12 14 18 18 16 28 28 26 24 24 26 25 24 22 20 17 16 17 26 20 19 17 20 22 23 26
14 13 7 9 10 11 4 5 5 10 10 10 10 12 14 15 14 16 26 24 23 26 25 24 23 23 23 20 12 12 16 25 25 21 21 17 19 22
8 10 10 11 8 7 0 1 7 5 8 8 9 10 11 13 13 13 16 25 25 25 25 25 22 20 21 18 17 8 16 20 27 29 28 26 20 17
2 5 5 1 2 3 9 8 4 3 7 6 9 8 9 10 12 13 13 14 26 26 26 24 22 22 20 19 19 18 16 15 20 19 18 26 29 28

GFSNE_sfc_dewp_072.txt.gz
Dewpoint
46 45 44 43 43 43 43 42 39 34 32 31 31 32 32 32 35 36 39 42 41 40 40 40 40 37 36 35 34 33 31 30 29 30 31 32 33 33
45 44 43 43 43 43 41 41 40 37 34 32 31 31 31 29 32 37 37 40 41 39 39 39 39 39 38 37 35 33 31 30 29 29 29 30 31 32
43 42 42 42 41 40 41 41 38 36 34 34 32 31 29 29 30 33 35 34 35 40 39 38 38 37 38 38 37 35 32 30 29 29 29 30 31 31
42 42 41 40 39 40 40 39 37 36 34 33 32 31 30 31 30 30 29 30 30 34 39 39 38 38 38 38 37 37 35 34 31 30 31 31 32 32
42 40 40 41 41 40 39 39 39 37 36 34 33 32 31 31 31 31 30 30 30 34 35 37 38 37 36 37 36 36 36 35 34 34 35 33 32 32
41 42 42 42 41 40 39 38 36 34 33 33 33 33 31 32 32 31 30 29 29 27 31 32 35 36 37 37 37 37 36 36 35 35 35 35 34 34
42 42 41 41 40 39 37 34 33 33 32 31 31 32 31 27 27 29 27 28 27 29 30 31 31 27 28 34 33 36 36 35 34 34 33 33 34 34
39 38 37 33 33 32 32 31 30 28 26 27 27 28 29 30 29 30 28 30 29 30 31 30 26 25 24 24 26 30 31 33 33 32 32 32 32 32
33 31 29 26 30 28 28 27 27 28 29 27 26 26 28 29 31 31 31 31 31 31 29 28 28 28 23 20 30 31 32 33 33 33 33 32 32 33
28 26 25 24 28 26 25 24 23 22 22 21 23 24 25 27 29 29 28 28 31 34 30 29 25 23 22 23 28 30 33 30 30 32 32 31 32 32
24 24 24 24 25 26 24 23 23 24 25 27 28 29 30 30 29 27 25 25 24 26 28 30 27 26 22 22 23 28 31 29 28 29 30 32 31 31
22 22 23 23 23 23 24 24 24 24 26 26 25 25 26 27 29 28 27 27 25 24 27 27 25 23 19 22 22 22 21 24 26 26 27 26 28 29
21 21 22 22 22 25 26 25 24 22 23 23 23 23 24 25 27 27 28 28 28 28 29 28 26 24 20 20 22 22 22 22 22 24 25 26 27 29
20 21 21 22 24 24 22 21 20 23 21 20 20 20 21 22 22 26 28 28 30 30 31 31 26 25 21 20 19 22 22 22 21 22 23 25 29 30
22 20 20 22 23 23 19 18 20 19 18 17 17 17 18 20 22 25 29 30 32 31 33 31 28 24 23 21 19 20 19 23 22 21 22 23 26 27
21 21 21 22 22 20 20 19 19 18 17 16 16 16 18 19 20 23 29 29 30 28 30 31 29 25 23 23 23 21 22 19 21 22 23 27 27 24
21 20 20 17 16 16 17 15 15 15 14 14 14 13 14 16 18 19 20 29 28 26 26 28 27 26 26 24 21 22 22 22 20 21 24 24 24 24
20 17 13 10 13 14 13 13 13 12 12 13 12 12 12 14 16 16 19 30 27 27 26 26 26 26 26 24 25 23 21 19 21 23 25 21 22 25
16 14 8 6 9 13 12 12 11 11 12 11 11 10 11 12 13 14 16 26 27 26 25 26 27 25 21 14 24 28 22 21 21 20 21 20 18 22
16 14 12 11 12 12 11 10 10 9 7 7 9 7 9 9 11 12 14 14 23 26 25 26 26 25 22 16 17 18 28 22 21 16 17 21 22 25
13 12 12 12 11 10 3 1 -2 -2 1 2 3 4 6 7 7 10 12 12 13 24 25 25 25 26 24 20 13 13 16 23 23 19 20 16 17 20
11 11 12 10 3 4 -2 -5 0 -2 1 3 1 4 0 4 6 9 10 10 10 13 24 24 27 26 20 19 17 10 15 17 24 28 26 24 18 14
7 9 6 -0 -0 -1 5 -3 -0 -5 1 5 5 4 1 3 5 9 9 9 11 13 17 25 26 21 20 19 19 18 16 13 19 19 17 26 29 28

GFSNE_sfc_dewp_075.txt.gz
Dewpoint
48 48 48 46 45 44 44 42 41 38 35 35 33 33 33 33 34 35 37 40 43 43 42 43 43 43 42 40 39 37 36 35 34 32 31 31 32 33
48 47 45 44 44 44 43 42 41 39 36 35 33 33 32 31 33 35 34 40 42 42 42 41 41 42 42 41 40 37 37 35 34 32 31 31 31 31
45 45 44 43 42 42 41 41 40 39 37 37 34 33 31 31 31 32 34 35 37 41 42 41 40 40 40 40 39 39 39 37 35 32 31 31 31 31
44 43 42 41 41 41 41 40 39 38 36 32 33 32 31 31 31 31 31 31 33 35 40 41 40 40 39 38 38 39 39 38 36 34 31 30 30 31
43 42 42 41 40 41 41 40 39 39 38 36 35 34 32 32 31 31 31 32 31 35 36 37 39 39 39 38 38 38 37 37 36 35 35 35 32 31
42 42 41 41 41 41 40 39 38 36 34 31 30 31 30 31 30 30 31 31 30 30 32 33 35 37 39 39 38 38 37 37 36 36 35 35 35 35
42 42 43 41 38 37 38 31 29 28 27 26 26 27 27 27 27 28 29 30 30 29 29 29 31 32 34 37 37 37 37 37 37 36 36 35 34 33
41 38 34 33 32 32 31 30 28 25 23 24 24 23 22 24 26 26 28 27 23 29 29 29 31 30 31 32 33 34 34 36 35 34 34 33 32 33
35 32 27 26 28 26 26 24 23 23 25 24 22 22 22 23 24 25 25 25 24 25 29 27 28 29 30 30 34 33 32 32 33 33 33 33 33 33
28 26 24 25 26 25 24 22 22 23 23 23 22 22 23 24 25 26 26 26 26 26 26 24 25 28 30 27 30 32 32 33 33 33 33 33 32 31
24 24 23 23 24 24 23 23 24 24 26 26 26 26 27 28 27 27 26 25 24 22 24 25 26 27 25 27 30 32 32 33 33 31 30 30 32 32
21 21 23 22 22 23 25 24 23 22 22 23 23 22 23 25 26 27 27 25 25 23 24 25 26 27 26 25 28 24 28 31 28 26 25 27 26 28
20 20 20 21 23 24 24 23 21 21 22 20 20 20 21 22 22 23 23 25 26 25 26 27 27 26 26 24 23 24 22 22 23 22 24 26 26 26
19 20 21 21 23 22 21 19 19 21 19 18 17 17 17 17 18 19 21 23 24 26 28 31 28 26 26 23 22 22 22 21 21 22 22 24 26 27
22 20 20 21 21 21 17 17 19 18 17 15 15 14 15 15 17 19 21 22 23 30 31 32 30 29 28 24 22 21 21 22 22 21 21 23 22 26
21 21 21 23 21 20 19 17 17 17 15 14 13 14 13 14 14 16 17 17 18 22 30 31 31 29 26 26 23 22 22 17 20 21 22 22 24 26
21 21 19 16 15 15 15 14 14 13 13 13 13 12 11 11 12 14 15 16 16 22 27 29 31 30 29 27 23 22 22 21 19 21 22 24 24 25
20 17 14 13 13 13 12 12 11 11 10 10 10 10 9 8 9 10 12 13 14 17 26 27 27 26 26 26 27 23 20 18 21 23 24 24 22 22
16 14 9 8 11 12 11 10 10 10 11 9 7 8 7 7 7 7 9 11 12 15 17 27 27 26 21 18 21 27 19 19 19 21 22 21 18 21
17 14 12 13 12 10 9 8 8 8 7 5 4 5 1 6 4 4 6 8 10 12 14 25 26 25 21 17 14 19 27 22 21 18 16 20 22 25
14 12 13 12 10 8 8 5 0 1 -1 -8 -4 -1 -3 4 2 3 4 7 8 10 12 14 25 26 26 24 14 15 16 26 24 19 19 17 17 18
12 11 11 10 8 7 3 -0 -2 -8 -6 -5 -5 -8 -5 -4 1 2 3 5 6 8 11 14 17 28 23 22 18 12 15 17 22 27 24 23 18 13
9 9 8 6 5 4 5 1 -3 -9 -3 -2 2 1 -2 -2 1 3 4 2 5 7 10 12 15 26 22 21 19 18 16 13 18 19 19 26 28 27

GFSNE_sfc_dewp_078.txt.gz
Dewpoint
52 51 49 49 48 47 46 45 44 39 38 38 36 35 35 35 35 37 38 39 42 43 44 44 45 45 45 45 45 44 42 41 39 38 37 36 34 34
51 50 49 48 47 45 44 43 42 41 38 38 35 35 36 34 36 37 35 38 40 42 42 43 44 44 44 44 44 44 43 42 39 38 37 36 34 33
49 49 49 47 45 43 43 42 41 40 38 39 36 36 35 35 34 34 34 35 36 39 41 42 42 42 42 42 42 42 42 42 40 36 38 39 35 33
48 47 46 44 43 42 42 41 40 40 38 36 35 35 33 34 34 33 33 32 33 35 38 39 40 41 41 41 41 40 41 40 39 38 38 37 36 32
47 46 45 43 42 41 41 40 40 40 38 37 36 35 34 33 33 33 33 34 33 35 37 37 38 38 39 40 41 40 40 39 38 37 38 38 37 32
47 46 44 42 41 41 41 40 40 38 35 34 33 32 31 32 31 30 27 29 29 30 31 32 34 35 36 37 38 39 40 39 38 38 36 36 35 35
45 44 43 41 39 39 40 33 31 30 28 27 26 27 25 26 24 27 25 26 28 28 28 31 31 31 31 33 35 39 39 39 38 38 37 36 35 35
40 36 35 34 32 32 31 30 28 25 23 23 23 20 19 22 25 25 25 24 21 27 27 25 26 27 30 33 33 36 37 38 38 38 37 36 36 35
34 31 29 29 29 27 26 24 23 23 25 23 20 21 22 23 24 24 24 24 23 24 26 24 26 25 25 24 32 34 35 36 36 35 35 33 34 32
30 28 27 26 26 24 21 20 23 23 24 24 24 24 25 25 26 25 25 26 25 25 27 24 25 24 26 28 31 32 36 35 35 33 33 34 33 32
24 24 23 23 24 24 23 24 23 23 23 23 23 23 23 24 25 26 24 24 22 21 25 25 24 25 26 28 29 31 33 34 36 33 34 34 33 33
20 21 23 22 23 25 26 23 21 20 20 19 18 19 21 23 24 25 25 23 22 20 24 25 24 25 24 27 27 29 31 34 33 33 31 27 28 29
18 18 20 22 24 25 23 21 20 19 17 16 16 16 17 17 16 18 19 20 20 19 21 23 25 26 27 24 25 27 29 30 28 27 25 25 25 26
20 19 21 22 24 22 20 19 19 18 18 16 15 15 15 14 14 15 17 20 21 22 22 24 25 26 26 25 23 23 25 25 25 25 25 24 25 25
22 22 21 22 22 20 18 18 18 17 16 15 14 13 13 13 12 15 15 17 19 19 19 22 24 28 29 26 25 25 26 24 24 25 25 24 24 25
22 22 21 22 20 19 18 17 16 15 14 13 12 12 12 12 11 11 13 14 15 16 18 21 25 30 29 28 27 25 25 24 24 24 24 25 25 26
22 21 19 17 15 15 15 13 14 13 12 12 11 10 9 9 9 9 10 11 12 13 14 17 23 31 31 28 26 26 26 25 24 24 23 23 25 27
20 18 15 14 14 13 13 12 12 11 10 10 9 7 7 7 7 8 8 8 9 11 12 15 17 27 27 28 30 26 25 24 24 24 24 24 24 26
17 16 13 12 12 13 13 12 11 10 10 9 8 7 6 7 6 6 5 5 6 8 10 13 18 22 22 20 25 29 25 23 23 24 25 25 24 25
18 15 13 13 13 13 12 10 7 8 7 6 5 5 4 4 4 3 3 3 4 6 7 9 16 19 22 22 23 23 28 25 23 23 22 24 25 24
16 15 15 13 12 10 9 8 6 4 5 2 -0 -0 -1 2 2 2 2 2 2 3 4 6 11 18 19 24 23 20 22 25 25 24 22 21 22 23
12 12 12 11 9 7 6 3 3 3 2 1 0 -3 -2 -1 0 0 1 1 2 2 3 7 10 16 16 23 21 19 19 19 24 27 24 24 24 20
8 7 7 7 6 5 5 4 0 -3 -1 -1 -1 1 -3 -2 0 1 2 2 1 1 2 6 8 13 14 23 22 20 17 17 20 22 23 26 27 26

GFSNE_sfc_dewp_084.txt.gz
Dewpoint
60 59 58 57 58 57 55 53 49 45 46 48 49 46 44 44 44 42 42 43 42 42 42 43 44 45 46 47 48 47 45 44 44 45 46 45 44 43
60 59 58 58 58 57 54 53 51 50 48 50 48 45 45 41 41 42 43 42 40 40 40 40 42 42 43 44 44 44 43 43 44 44 45 45 43 42
59 57 57 57 54 53 53 51 50 51 49 48 47 43 44 42 40 41 42 41 40 40 39 39 39 40 41 42 42 42 42 41 42 42 43 44 44 43
56 56 55 54 53 52 51 49 48 49 47 44 43 41 42 42 42 41 38 36 37 40 38 38 38 38 38 38 38 39 40 39 39 40 40 40 41 42
56 55 54 52 51 50 50 48 47 45 43 42 40 41 40 40 39 40 38 39 35 36 34 34 34 35 36 37 36 36 37 37 37 36 37 39 41 41
56 54 53 50 49 47 45 46 44 42 41 41 40 39 38 38 37 35 35 34 29 18 24 26 30 30 32 34 35 36 35 34 34 35 35 35 38 40
52 50 48 47 45 44 45 44 42 40 39 36 34 33 34 34 33 32 27 25 23 23 22 23 24 24 26 31 30 32 33 31 31 32 33 35 36 39
42 40 39 39 37 36 35 35 37 36 33 33 33 33 33 31 28 25 22 20 18 21 24 23 23 22 23 24 29 30 31 32 32 33 33 34 35 38
37 36 34 32 31 29 29 28 28 28 29 31 33 30 26 25 24 23 22 22 21 21 23 23 25 25 24 19 31 32 32 32 33 33 34 34 35 35
34 33 32 30 30 28 25 24 23 23 23 21 23 22 24 24 24 22 24 24 24 22 23 26 24 23 24 25 30 32 32 33 33 33 34 35 36 36
30 30 30 30 30 26 23 23 21 23 24 23 22 20 20 21 22 21 22 22 24 19 21 21 20 22 22 22 23 30 32 32 33 33 32 34 36 36
28 27 27 26 26 26 24 22 19 20 20 18 19 18 20 20 22 20 18 20 18 18 18 21 19 17 20 21 22 24 26 31 32 32 32 32 34 35
21 21 24 27 26 24 24 22 21 20 19 16 15 14 14 16 16 15 15 15 17 15 16 18 18 17 18 17 17 20 23 28 30 29 34 34 34 32
18 21 24 26 24 22 22 22 20 20 23 21 19 17 15 15 15 15 14 14 15 15 15 19 20 17 17 17 15 17 22 31 31 30 34 35 32 31
24 24 25 25 22 22 21 18 19 22 22 21 20 17 15 14 12 14 16 16 15 16 12 16 18 17 18 18 19 20 24 25 31 30 32 33 29 27
24 24 25 25 23 22 20 20 21 20 18 18 17 15 15 17 17 16 17 16 14 14 14 15 17 19 19 18 18 20 22 27 30 29 30 31 31 28
26 24 23 22 20 20 20 19 18 18 18 19 18 17 16 16 16 15 14 14 14 13 12 11 13 15 17 17 20 19 23 28 33 29 29 28 29 28
24 24 24 23 21 18 18 18 18 17 16 15 15 14 14 14 13 13 12 13 12 11 10 10 13 13 14 15 20 23 26 30 31 28 31 27 25 26
22 21 22 21 19 16 16 15 16 16 15 13 13 13 13 12 12 11 12 11 11 10 9 10 11 11 11 13 15 20 23 29 30 30 29 27 26 25
17 17 18 17 16 15 14 14 13 14 13 13 12 12 12 11 11 9 9 10 9 7 6 4 8 8 10 13 15 19 18 20 29 30 27 27 27 27
14 13 15 13 13 11 14 14 14 13 12 12 11 10 11 10 8 7 7 7 7 6 5 5 6 10 9 12 16 18 21 26 28 29 27 26 24 23
12 9 9 9 11 10 11 11 10 9 9 8 8 9 9 9 7 7 8 8 6 7 5 5 6 7 8 9 12 16 17 23 31 26 27 27 26 23
10 9 9 10 9 9 7 8 7 8 6 6 6 6 7 6 6 7 8 7 7 6 5 6 6 6 6 6 12 14 16 19 29 27 27 26 26 26

GFSNE_sfc_dewp_087.txt.gz
Dewpoint
61 61 59 58 59 58 57 56 54 50 49 51 49 52 52 52 48 47 46 46 44 44 44 44 45 46 46 46 46 46 46 46 46 45 45 45 44 44
59 60 60 59 59 60 60 58 55 52 48 51 50 52 50 49 47 47 47 46 43 42 41 42 43 43 44 44 44 43 43 43 43 43 43 44 45 45
59 59 59 59 59 60 57 55 54 52 50 51 52 51 48 48 42 44 45 45 43 41 40 41 40 40 41 41 41 41 40 40 40 40 41 41 42 43
57 58 58 57 57 57 55 53 52 52 50 50 50 47 45 45 44 44 41 39 41 41 42 40 39 38 38 37 38 38 38 38 37 35 35 35 35 36
56 57 57 56 56 55 52 52 51 50 50 46 41 42 42 43 42 42 42 42 40 42 38 36 37 37 35 35 36 37 36 36 36 37 36 35 35 35
57 57 57 56 55 54 51 50 47 45 43 43 41 39 40 41 41 39 40 41 39 34 33 29 30 33 35 35 34 34 35 36 35 35 35 34 34 34
56 55 52 51 47 48 47 46 45 43 41 39 37 36 36 36 36 36 36 36 34 32 28 27 27 28 30 33 33 35 36 36 35 34 33 34 34 34
45 41 40 40 38 38 37 37 41 40 37 35 34 33 34 36 36 35 34 31 27 29 27 24 28 27 27 28 30 32 32 33 32 33 33 33 34 34
39 36 35 34 34 33 33 33 33 33 32 35 34 34 34 34 32 30 29 27 26 26 27 27 29 28 27 23 32 33 33 32 32 33 33 34 34 34
35 34 33 32 32 31 29 27 27 27 27 25 27 28 27 29 27 25 25 26 27 25 26 26 28 28 30 29 31 33 34 34 33 33 34 33 34 34
32 32 32 32 32 30 27 27 26 24 27 25 23 21 20 21 21 20 24 24 26 22 26 26 26 25 25 29 27 26 30 32 34 33 33 33 34 33
29 30 31 29 29 28 27 25 24 24 22 20 22 20 20 21 22 21 18 21 19 18 22 22 21 23 23 24 25 28 26 29 32 32 33 34 34 31
26 27 29 28 26 26 27 27 24 22 21 18 17 16 16 17 17 19 18 18 19 18 21 21 18 20 21 19 19 23 25 25 26 29 32 34 34 34
22 25 27 25 24 25 23 21 21 23 23 23 22 20 20 19 18 18 18 18 18 17 16 20 22 18 18 18 17 18 22 26 28 28 32 33 34 34
27 27 26 24 23 23 21 18 21 22 23 23 21 19 17 17 16 18 20 19 19 20 16 21 21 18 19 19 19 20 21 22 26 27 30 32 33 32
27 28 27 25 23 23 21 21 22 21 20 20 21 19 18 19 18 19 20 19 18 19 18 21 21 20 19 18 18 19 20 22 24 26 28 34 33 32
26 25 24 23 23 23 23 23 22 21 20 21 19 17 16 15 16 17 17 17 16 14 16 16 17 18 18 17 17 17 19 20 24 26 27 31 32 32
25 26 26 24 22 19 20 19 18 18 19 15 15 15 14 15 15 15 14 15 16 14 14 14 16 17 16 14 16 17 20 23 25 24 25 31 29 33
23 23 23 22 20 17 17 16 16 17 16 15 14 14 13 12 13 13 14 14 14 14 13 13 13 12 11 12 16 18 19 17 18 20 22 32 29 29
18 19 18 18 16 14 13 12 12 13 12 12 11 12 12 11 11 10 10 12 11 9 7 6 9 12 13 12 12 14 13 16 18 21 23 31 30 28
14 13 14 12 11 10 13 13 13 12 11 11 10 10 11 9 8 8 8 9 9 6 6 6 7 12 11 13 13 14 17 16 18 23 23 24 27 27
12 9 10 11 11 11 12 12 11 10 9 8 9 9 9 9 8 7 8 8 6 8 7 7 8 9 10 10 10 12 13 17 19 23 26 29 28 26
12 10 10 11 10 10 8 9 8 9 7 7 7 7 8 7 6 7 8 8 7 7 7 9 9 8 7 6 9 11 12 15 19 20 27 27 28 28

GFSNE_sfc_dewp_090.txt.gz
Dewpoint
58 58 58 57 57 57 56 55 53 50 50 51 53 54 54 52 51 50 47 46 45 45 45 46 47 48 48 48 48 47 47 47 47 47 47 47 46 46
58 58 58 57 58 58 57 56 55 54 51 51 52 52 52 52 52 50 47 47 45 44 44 44 44 45 46 46 46 46 45 44 44 43 44 44 44 45
58 57 57 58 57 57 57 57 56 55 52 53 52 52 50 50 50 48 47 45 44 43 42 42 42 42 42 42 42 43 42 42 42 42 42 42 42 42
56 57 56 57 57 57 57 56 55 55 53 51 51 50 50 48 48 46 45 45 46 44 43 42 41 40 40 40 39 39 39 39 38 37 36 35 35 35
56 55 55 55 56 56 55 55 54 53 52 51 47 42 42 43 42 43 44 43 42 45 43 41 41 40 39 39 38 36 37 37 37 36 36 36 34 34
55 55 55 55 54 54 54 54 53 50 48 45 41 40 40 41 41 40 40 42 42 41 41 38 38 39 39 36 35 36 36 35 35 36 36 36 35 33
54 54 48 45 44 48 52 50 48 46 42 40 38 37 36 36 36 38 37 37 37 37 36 35 32 30 30 35 34 36 36 36 36 37 36 35 34 34
47 41 39 38 38 38 38 37 40 41 38 36 34 34 34 36 36 35 35 34 32 35 34 30 28 27 29 29 32 33 34 36 36 37 35 34 34 34
40 38 36 36 36 35 34 33 33 33 32 36 34 34 33 34 34 32 32 32 32 31 28 25 28 27 29 25 32 34 35 36 35 34 33 33 33 34
37 35 34 33 33 32 31 30 30 31 31 32 32 31 31 31 29 27 27 26 27 26 26 24 26 25 28 28 33 33 32 33 34 34 33 34 34 34
34 33 33 32 33 32 30 29 28 28 29 29 27 23 21 20 21 22 23 24 23 22 26 27 24 24 25 25 28 30 30 29 30 33 35 34 34 33
30 30 30 29 30 29 27 27 26 25 24 23 23 21 20 23 22 22 22 23 22 20 22 22 22 22 22 23 24 25 24 26 30 29 27 28 29 30
28 27 29 29 29 27 25 24 23 24 25 25 24 24 24 23 24 24 23 23 21 20 23 22 20 17 18 16 18 20 22 21 22 23 29 31 30 31
27 26 27 27 24 22 22 23 25 26 26 25 25 23 22 21 21 20 20 20 20 19 20 22 19 18 17 16 15 17 19 21 23 23 24 27 29 30
27 28 28 26 23 22 22 24 25 23 22 21 22 21 20 20 20 21 22 22 22 21 18 21 21 20 20 20 18 17 17 18 20 22 25 26 29 30
28 29 28 27 25 23 24 24 23 23 22 22 20 18 18 18 18 18 18 18 17 16 17 18 19 20 22 23 22 20 18 16 17 19 21 22 23 26
27 29 28 26 24 23 23 22 21 21 19 18 17 17 17 16 15 16 14 13 12 12 12 13 16 18 18 17 16 15 14 15 18 21 23 24 23 26
28 25 23 23 21 20 20 19 19 18 15 16 15 14 13 12 12 12 12 11 10 10 10 11 12 10 9 10 13 13 18 19 15 13 14 16 16 19
23 21 20 20 18 16 15 15 14 15 15 13 12 12 12 11 10 9 9 9 9 8 7 7 7 8 9 8 9 11 11 11 12 13 16 17 19 21
18 17 16 16 14 13 13 13 13 13 12 11 9 9 6 9 8 8 8 6 6 6 5 5 6 7 7 7 7 9 13 12 14 16 16 19 21 23
13 13 14 13 12 12 12 11 8 6 6 4 7 5 1 7 6 7 6 5 5 5 4 5 6 11 9 11 7 6 9 12 12 13 15 18 17 19
12 11 11 12 11 11 8 6 5 5 5 5 1 -1 0 4 4 4 5 5 6 6 5 6 6 7 9 6 5 5 7 10 12 16 20 20 19 20
11 10 10 9 9 7 8 6 4 0 4 3 4 4 -2 -0 5 5 5 6 5 4 4 5 7 5 5 5 5 6 6 8 10 13 18 23 27 27

GFSNE_sfc_dewp_093.txt.gz
Dewpoint
55 56 55 55 55 55 54 53 51 47 48 50 52 54 55 54 52 51 51 48 47 47 47 48 49 50 50 50 50 50 49 49 48 48 48 48 48 47
57 56 56 56 55 55 55 55 55 53 50 52 52 52 52 53 52 52 50 49 46 45 45 46 46 48 48 48 48 48 48 46 45 45 44 44 44 44
56 56 57 56 56 56 56 56 55 55 52 52 52 51 51 50 51 51 51 49 48 44 44 44 44 44 45 45 45 45 45 44 43 43 43 43 43 43
56 55 56 56 55 56 56 55 55 55 53 51 50 51 49 48 50 49 49 48 47 45 44 43 43 42 42 42 41 41 41 41 40 39 38 37 38 37
56 55 56 55 55 55 55 55 55 54 54 53 53 45 44 44 43 44 45 44 44 45 44 43 42 42 41 41 40 40 39 38 37 37 37 36 34 33
56 55 56 55 55 54 54 53 53 53 52 51 45 41 41 42 41 41 40 42 42 43 43 43 41 41 41 40 40 39 37 37 37 37 36 36 36 36
54 52 45 44 42 45 51 52 51 49 44 43 38 37 36 37 37 38 37 36 38 40 39 39 39 39 38 38 37 37 37 37 37 37 37 36 35 36
47 41 39 39 37 37 37 37 41 43 39 37 35 34 35 35 35 34 34 33 33 39 36 34 34 32 32 32 33 35 36 37 37 37 37 37 36 35
43 39 37 37 36 35 35 34 34 34 33 36 34 33 32 33 33 32 32 32 32 35 33 28 28 28 29 26 32 33 34 35 35 35 35 35 35 34
37 36 35 34 35 34 33 32 32 32 32 33 32 32 33 33 32 27 26 26 25 25 28 24 25 25 27 28 30 32 33 31 30 30 31 34 34 34
34 34 33 33 34 34 30 29 27 28 31 31 30 27 24 22 20 22 23 23 23 21 24 24 23 22 23 23 25 26 25 25 25 26 27 28 28 29
30 31 32 31 31 31 29 27 25 24 25 26 25 24 24 24 26 25 24 22 21 18 22 19 20 17 16 21 19 19 20 21 22 23 24 24 25 27
28 28 30 30 29 27 28 28 28 28 27 26 24 23 22 22 21 21 21 20 19 19 20 20 19 19 18 17 17 19 19 20 21 21 22 23 24 24
27 27 28 26 28 28 28 28 27 26 26 25 23 20 19 19 19 21 22 22 22 20 20 21 18 17 16 16 14 16 18 20 21 20 21 23 25 22
28 28 29 29 29 28 28 27 25 25 24 21 19 17 18 18 18 19 19 17 17 16 13 17 17 17 17 17 17 16 17 18 21 21 19 19 19 21
29 29 28 27 27 27 26 25 23 22 20 19 18 17 17 16 16 15 14 13 13 12 12 16 17 16 14 12 12 11 11 13 15 19 19 16 19 19
27 27 27 26 24 23 22 21 19 17 17 17 17 15 14 14 13 13 12 11 10 9 9 9 10 10 10 10 9 11 14 11 13 12 12 12 14 18
25 23 21 21 20 19 18 17 16 16 15 14 14 13 12 11 11 11 11 10 8 8 7 7 8 8 8 8 9 8 8 10 10 11 13 13 14 17
20 19 18 17 16 15 15 14 13 13 13 12 11 10 10 9 9 9 9 7 6 6 5 6 7 6 4 1 5 9 10 10 10 10 12 13 14 16
17 15 14 14 13 13 12 11 11 10 9 10 8 6 3 8 7 7 7 -1 5 5 4 4 5 6 5 4 6 9 10 8 8 8 10 12 14 16
13 12 12 12 11 10 9 8 6 6 4 1 3 2 -8 3 0 4 4 2 2 5 3 3 4 8 8 8 3 3 6 10 11 10 11 12 13 16
11 11 10 10 9 8 5 2 3 1 0 -0 -10 -11 -12 -5 -5 -2 -2 2 4 4 3 4 5 5 4 4 2 3 5 7 10 13 14 15 14 12
8 8 7 6 6 5 4 0 -3 -13 -2 -1 -4 -3 -14 -5 1 0 0 3 3 4 3 2 3 3 4 3 3 4 5 6 8 11 14 17 19 22

GFSNE_sfc_dewp_096.txt.gz
Dewpoint
54 55 55 55 55 54 53 52 50 46 46 49 51 54 54 53 52 53 53 49 47 47 47 48 50 51 51 52 52 53 53 52 52 52 51 50 49 49
55 55 55 54 54 55 54 53 52 51 48 51 51 53 53 54 54 54 52 50 47 47 46 46 47 49 49 50 50 50 50 50 50 48 47 46 46 46
55 55 54 55 55 55 54 54 54 53 52 52 51 51 50 50 51 52 53 52 51 46 45 45 45 46 46 47 47 47 47 47 46 45 44 44 44 44
55 55 55 55 54 55 55 54 54 55 53 51 51 49 49 49 48 50 51 51 50 47 45 44 44 44 44 44 44 44 44 43 43 43 41 40 38 37
55 55 55 54 54 55 55 55 55 54 53 53 53 46 44 44 44 44 45 45 46 46 44 43 43 43 43 42 42 42 42 41 40 39 37 36 36 35
55 55 55 55 54 54 54 54 54 53 53 53 52 42 42 42 42 41 40 41 41 41 41 40 41 41 41 41 41 40 41 40 39 37 36 35 35 36
54 54 53 49 43 46 52 54 52 52 53 46 40 38 37 37 37 38 36 37 39 39 40 39 39 37 37 38 38 39 39 38 39 37 37 37 36 36
53 43 40 39 37 37 38 38 39 46 42 39 37 35 35 34 35 34 34 33 33 38 35 35 37 35 35 35 36 37 36 36 36 37 37 36 36 37
49 41 38 37 36 36 35 35 34 34 33 37 34 33 32 33 34 32 32 32 32 33 29 26 28 27 27 23 28 31 29 28 28 28 29 30 29 29
40 40 38 36 35 35 33 32 32 32 33 33 33 32 32 32 29 27 23 22 23 24 24 23 24 22 24 24 25 27 25 24 24 24 24 24 27 28
35 35 35 34 35 35 30 29 28 29 31 30 28 28 28 27 26 24 23 23 23 21 21 21 22 19 21 21 21 22 22 22 22 22 22 22 22 22
31 32 32 32 32 31 29 27 26 28 28 27 26 25 24 24 24 22 22 20 18 17 21 19 19 18 17 19 19 20 20 20 22 22 23 23 22 21
30 30 31 31 31 31 30 29 28 29 28 27 25 22 21 20 21 21 21 21 20 18 19 19 18 16 16 13 16 16 18 19 19 21 23 23 22 20
26 28 30 31 30 29 29 29 29 28 27 24 22 19 19 18 18 18 17 16 15 14 15 18 14 15 14 13 11 13 14 15 15 16 20 20 21 20
28 30 30 29 28 28 28 27 26 24 22 20 18 17 16 15 13 13 14 12 12 12 9 15 16 12 11 10 8 8 9 10 17 15 16 14 12 13
28 27 27 27 26 26 24 23 23 22 20 19 17 15 13 14 13 13 12 11 10 10 8 12 11 11 10 9 10 10 11 11 9 11 11 13 14 15
27 27 25 24 22 21 20 20 20 18 17 17 15 13 12 11 11 11 11 10 8 7 6 7 8 10 9 9 8 7 7 7 10 10 11 10 11 14
24 21 20 20 19 17 16 15 14 13 13 13 12 10 10 9 9 10 10 8 6 6 6 6 8 7 6 5 8 6 7 9 10 9 9 8 8 11
18 17 16 16 16 15 14 13 11 12 13 11 10 9 10 9 9 8 7 6 5 5 6 6 6 5 2 -1 4 7 8 7 7 7 8 9 9 10
15 14 14 13 13 12 11 10 9 10 9 8 6 5 4 6 5 5 5 -3 3 5 4 4 4 4 4 3 4 4 8 6 7 8 9 11 12 14
12 12 12 11 10 9 8 6 1 -0 -0 -1 1 0 -9 0 -2 2 2 1 0 3 2 2 4 8 6 6 2 1 4 9 10 10 11 11 10 11
10 9 9 8 7 6 3 0 1 1 -2 -1 -14 -15 -18 -8 -5 -4 -6 -5 2 2 2 3 3 4 4 3 2 2 3 5 8 11 13 15 14 11
6 6 5 4 3 -1 2 -3 -4 -11 -6 -6 -5 -6 -19 -10 -4 -5 -6 -1 1 1 1 1 1 2 2 2 2 2 2 2 5 10 11 17 21 19

GFSNE_sfc_dewp_102.txt.gz
Dewpoint
51 51 51 52 53 53 53 52 51 48 47 50 51 53 52 51 50 51 52 50 48 47 47 48 50 51 52 53 54 55 55 56 56 56 56 57 57 57
53 52 52 53 53 54 53 53 52 51 49 51 51 53 53 53 52 52 52 50 48 46 46 46 47 49 50 50 51 52 52 53 53 54 55 55 55 54
53 53 53 54 53 54 54 54 53 53 51 52 52 52 52 52 52 53 52 52 52 48 46 45 45 45 46 46 47 48 49 50 50 50 48 48 48 48
53 53 52 54 54 54 54 53 53 53 52 50 52 51 50 50 50 50 50 51 50 45 44 44 44 44 43 43 43 44 44 44 43 42 41 42 41 41
53 53 53 54 53 54 54 53 53 53 53 52 52 50 48 47 47 46 46 46 45 44 42 42 42 42 41 41 41 40 41 41 40 39 39 39 39 40
52 53 53 53 53 53 53 53 53 52 52 52 52 52 49 45 45 45 42 42 41 41 41 40 40 40 39 37 37 37 37 37 36 35 34 33 32 33
51 52 53 52 49 51 54 53 53 52 52 51 51 51 45 41 41 41 40 37 35 36 39 38 38 37 32 31 33 34 32 31 29 28 27 27 27 27
51 51 52 48 47 40 39 37 39 51 52 51 51 46 42 37 37 36 35 35 33 30 33 30 31 27 25 25 31 29 28 26 25 25 25 25 25 25
51 50 47 43 41 37 35 34 33 33 32 41 44 35 33 34 34 33 32 32 28 25 29 27 27 25 23 24 28 26 24 23 24 24 23 23 23 23
49 49 47 43 39 37 33 31 30 30 30 30 30 29 29 30 31 31 29 26 26 24 26 24 25 24 26 26 24 23 21 22 22 20 18 18 18 19
42 43 46 41 37 37 32 29 29 29 31 31 30 30 30 30 30 29 27 27 25 21 21 23 21 18 21 22 17 19 19 19 17 16 17 18 19 20
34 34 36 36 35 33 30 29 26 26 25 25 24 24 24 25 25 24 26 23 23 20 18 17 15 14 14 18 16 16 15 13 13 15 17 18 18 13
32 31 32 33 32 32 30 28 26 26 25 23 22 21 21 21 21 21 21 21 19 15 18 18 16 14 13 11 8 10 10 10 14 14 17 17 15 14
30 31 32 32 31 30 28 28 27 25 23 21 19 18 18 18 18 19 19 18 17 15 14 15 14 9 8 7 6 7 9 11 11 10 14 12 14 14
30 30 29 28 27 26 26 25 23 22 20 18 16 16 17 18 17 16 17 13 9 7 7 11 12 9 9 8 7 8 9 6 10 12 12 12 12 11
23 23 23 23 22 21 21 21 21 20 18 16 15 15 15 13 12 11 11 11 10 9 6 8 8 9 8 7 6 7 6 7 7 11 11 11 11 11
23 22 20 19 18 18 18 18 18 16 15 15 14 13 12 11 10 9 8 7 6 5 5 6 5 6 7 5 6 4 5 6 9 9 8 9 9 12
20 18 17 16 16 15 14 14 14 13 13 12 12 11 10 8 7 6 6 6 5 4 5 5 6 5 4 3 6 5 5 8 8 7 7 9 8 9
16 16 15 14 14 14 13 12 11 11 10 10 9 8 8 6 6 5 4 3 3 4 4 4 5 4 0 -1 1 7 7 7 8 8 8 9 10 10
14 13 13 13 12 12 11 10 9 8 7 5 4 3 5 4 3 2 2 1 1 2 2 1 3 3 2 1 3 5 9 7 8 8 8 10 11 13
10 10 10 9 8 7 6 5 4 3 2 1 -0 -1 -2 1 -1 -1 -1 -2 -1 0 -0 0 1 7 3 5 2 3 5 7 9 10 10 10 9 10
8 7 7 7 7 5 4 3 2 1 -0 -1 -7 -6 -5 -2 -3 -4 -4 -3 -2 -0 -1 -0 0 0 1 -0 -0 1 2 4 6 11 15 16 12 9
4 3 3 4 3 3 2 0 -2 -4 -2 -3 -3 -4 -10 -5 -4 -3 -4 -3 -3 -3 -2 -2 -2 -2 -2 -3 -2 -0 0 2 4 9 14 20 25 21

GFSNE_sfc_dewp_105.txt.gz
Dewpoint
54 55 53 50 51 51 54 54 51 48 50 53 53 56 54 54 53 55 55 51 48 47 47 48 50 51 52 52 53 54 55 55 56 56 57 57 57 57
53 53 53 54 55 56 55 54 54 53 50 54 53 55 57 54 54 55 54 50 48 46 46 46 47 49 50 50 51 51 52 52 52 53 53 53 53 52
53 53 53 53 54 55 54 53 53 53 51 53 55 55 55 55 54 56 55 55 55 48 46 45 45 46 46 46 46 47 48 48 47 46 46 45 46 46
52 53 52 53 54 54 54 53 54 55 53 51 54 54 54 55 55 55 53 52 53 44 44 44 44 43 42 42 43 43 43 42 41 41 41 41 41 42
52 52 51 51 53 54 53 54 54 54 55 54 53 54 55 53 53 52 51 49 45 42 41 41 41 40 39 39 39 40 39 39 37 36 35 34 35 36
52 53 52 51 51 52 53 54 54 54 54 53 53 53 54 54 52 52 48 44 42 41 41 39 36 34 35 36 35 35 34 33 32 30 30 29 28 29
53 53 53 52 48 50 53 53 53 53 53 52 51 52 52 46 48 49 46 37 33 37 36 34 32 31 32 34 33 33 32 31 29 28 27 27 27 26
51 52 51 48 48 44 41 41 48 53 52 52 51 50 51 48 42 41 37 35 33 31 32 30 30 28 30 32 32 30 28 28 28 25 23 21 21 21
52 51 51 50 46 41 36 35 34 33 32 44 49 44 39 39 37 35 35 33 28 27 31 26 29 26 29 33 31 27 25 24 22 19 18 19 19 20
54 54 53 52 47 41 37 33 33 33 33 33 33 32 32 33 33 32 29 26 25 24 26 24 26 25 28 31 25 23 23 21 16 16 18 19 21 21
52 53 53 54 41 39 34 32 30 30 31 31 30 30 29 30 31 31 29 27 23 20 22 26 23 21 23 25 23 24 23 16 16 18 18 19 19 17
35 35 35 44 36 35 35 31 27 27 25 24 24 24 24 25 25 25 27 26 23 20 21 23 19 18 18 21 22 14 15 11 14 15 16 18 17 12
32 32 32 33 33 33 32 29 26 24 23 22 21 21 21 21 21 23 23 24 20 17 17 20 15 14 13 7 4 8 10 10 11 11 13 14 15 15
32 31 31 31 30 29 27 27 25 23 22 20 19 18 18 19 19 20 21 19 17 15 14 17 15 10 10 10 5 5 9 10 9 9 11 13 14 14
30 30 29 28 27 26 26 25 23 21 19 17 16 17 18 18 19 19 17 14 12 10 10 12 12 7 8 9 8 8 8 6 8 10 12 12 12 11
23 23 22 22 22 21 21 21 21 21 19 17 16 16 16 15 14 15 14 13 10 9 6 8 9 10 12 9 7 8 6 10 8 11 11 12 13 13
26 24 23 22 20 19 19 18 19 17 16 16 15 14 13 12 11 11 9 8 9 6 6 6 6 8 8 6 11 6 6 8 11 12 11 12 13 15
24 22 21 21 19 17 16 15 14 14 13 13 13 12 11 10 8 9 9 9 8 7 6 6 9 10 8 7 7 7 9 12 10 10 11 13 12 14
23 21 21 20 18 15 14 12 12 12 12 11 10 10 9 9 9 8 8 8 7 6 5 6 8 8 8 9 8 5 10 9 11 13 13 13 14 16
19 18 17 16 14 13 12 10 9 9 8 7 8 9 9 8 7 6 6 8 7 5 4 3 5 5 7 8 9 11 11 10 11 12 13 14 16 17
13 13 14 12 11 10 12 11 11 9 8 8 7 6 8 7 6 5 5 3 5 4 3 3 3 5 6 8 10 10 10 9 11 12 13 14 17 19
11 9 9 10 11 10 11 10 9 8 7 6 7 7 8 8 6 6 6 7 5 6 3 3 3 4 5 3 4 7 8 11 12 14 16 16 18 21
10 9 10 10 10 10 8 9 7 8 6 5 6 5 6 6 5 6 6 5 3 3 3 3 3 3 3 1 2 5 7 9 12 16 23 22 23 23

GFSNE_sfc_dewp_111.txt.gz
Dewpoint
56 56 56 56 57 55 51 51 50 48 47 54 54 55 56 56 55 57 57 52 48 48 48 49 50 51 52 52 53 53 54 54 54 55 55 55 55 55
56 56 56 56 56 56 54 54 53 51 49 51 53 58 57 52 54 57 57 53 48 47 46 47 47 49 49 50 50 51 51 51 51 51 51 50 50 49
56 55 55 56 55 55 54 53 52 51 47 49 51 57 57 57 57 58 57 57 51 46 46 46 46 46 46 46 46 46 45 45 45 45 45 45 45 44
55 55 55 55 54 55 55 53 51 51 51 49 50 54 55 56 55 56 56 54 46 42 42 42 42 42 42 41 40 39 38 38 37 38 38 38 39 39
55 54 54 54 53 53 54 53 53 53 54 51 50 54 55 56 55 55 52 47 41 40 39 40 40 40 39 38 37 36 36 35 33 32 31 31 31 31
55 54 54 53 53 53 53 53 53 53 53 53 53 53 53 54 54 53 49 46 42 38 38 38 37 37 37 36 35 34 34 32 30 28 26 25 24 24
53 54 53 52 49 51 53 53 53 53 52 52 52 51 51 53 51 51 49 38 38 37 35 34 35 35 34 34 34 33 31 28 25 23 22 21 22 23
52 52 52 48 48 45 46 46 50 52 51 51 51 49 51 50 51 50 42 36 35 36 32 31 33 32 32 32 32 31 27 23 21 20 20 21 22 22
51 52 51 51 49 51 40 39 36 35 35 49 51 50 48 46 49 44 39 37 33 31 31 27 30 29 31 31 30 29 25 19 18 20 21 21 21 21
52 52 52 52 51 49 42 36 33 33 34 35 33 33 34 36 37 37 33 27 27 27 30 25 28 27 30 30 30 28 25 23 17 18 19 20 20 20
53 53 52 52 46 43 38 32 30 29 31 31 31 31 31 32 33 32 29 29 24 23 24 25 25 26 28 29 28 27 24 24 19 16 16 16 17 18
37 35 35 42 40 39 37 33 28 26 26 26 26 26 26 26 27 29 30 26 23 22 24 25 24 26 25 29 29 27 17 17 14 15 14 15 16 16
33 32 33 35 35 35 34 32 27 25 24 24 23 23 23 23 23 24 26 27 24 21 24 27 25 23 24 15 15 16 17 18 17 14 15 16 18 17
31 31 32 33 32 31 29 28 26 24 24 23 22 22 22 22 23 23 25 25 26 24 26 27 22 22 20 15 6 9 14 16 14 13 17 18 18 19
28 28 28 28 27 26 26 26 25 24 23 22 21 22 23 22 22 21 20 18 18 18 18 19 17 13 15 14 11 12 13 11 13 17 18 17 17 18
25 26 25 25 24 26 26 26 26 26 25 23 22 23 21 19 18 18 18 17 15 13 10 11 12 14 16 12 11 13 10 12 13 16 16 18 19 19
28 28 27 26 25 26 26 26 26 24 23 22 20 18 15 15 15 16 16 15 14 10 10 10 11 11 12 10 16 10 10 12 16 16 17 17 18 20
30 29 29 28 26 24 22 21 20 19 17 17 17 15 15 16 16 17 17 16 14 11 11 11 14 15 14 13 13 11 13 16 15 15 17 19 18 21
27 27 27 26 25 21 20 19 18 18 17 18 18 18 17 16 17 16 16 15 12 10 9 10 13 13 14 16 14 12 15 15 16 18 18 19 20 22
25 25 24 22 19 17 16 16 16 17 18 17 19 19 19 17 17 15 16 16 13 9 8 6 9 10 12 14 15 17 18 16 16 17 18 19 21 22
19 18 20 18 18 18 20 20 20 19 19 19 18 17 19 16 14 13 11 11 12 8 7 7 7 11 11 14 16 15 16 16 16 18 19 19 19 21
17 16 16 17 18 18 19 19 19 18 17 17 18 19 19 17 15 14 15 14 10 11 8 8 8 9 11 10 10 14 14 17 19 22 21 20 21 22
19 17 18 18 18 18 16 17 16 17 15 15 15 15 17 15 14 13 13 11 9 10 9 9 10 10 10 9 10 13 16 16 17 19 22 28 23 23

GFSNE_sfc_dewp_114.txt.gz
Dewpoint
56 56 56 57 57 57 56 54 49 46 46 51 51 55 55 55 54 54 54 50 48 47 48 49 50 52 52 52 53 53 53 53 53 53 53 54 54 53
56 56 56 56 57 57 56 55 53 49 47 52 53 55 55 54 55 55 56 50 47 46 46 46 47 48 49 50 50 50 50 50 50 50 51 50 49 48
56 56 55 56 56 56 56 54 53 52 48 51 53 56 56 56 56 57 57 51 47 46 45 45 46 46 46 46 46 47 46 46 46 46 46 45 44 44
55 55 55 56 55 55 55 54 54 53 50 50 52 53 54 55 55 54 56 49 44 43 43 43 43 42 42 41 40 40 40 39 39 38 38 38 37 37
55 55 55 55 54 55 54 53 53 53 52 50 49 52 53 54 54 53 46 42 41 41 41 41 41 40 39 39 38 37 36 34 33 32 30 30 30 30
55 55 55 55 53 53 53 53 53 52 52 52 51 52 52 53 53 51 46 42 40 39 39 38 38 38 37 37 36 35 34 33 32 31 30 29 28 25
54 54 55 53 50 51 53 53 53 52 51 51 50 51 50 50 50 51 47 39 37 37 36 36 35 35 35 35 34 33 32 29 25 23 22 22 22 23
52 53 53 48 48 46 46 47 50 52 51 50 50 48 50 50 49 48 40 37 35 36 33 31 34 32 32 33 33 30 26 24 22 22 22 21 22 22
52 52 52 51 48 50 41 38 36 36 38 50 50 48 47 47 47 46 41 37 35 32 31 28 31 30 32 32 31 29 26 20 19 20 20 21 21 22
51 52 52 50 50 47 40 34 33 33 34 35 35 33 34 36 37 35 34 28 28 28 31 25 29 28 29 31 31 30 27 24 17 17 17 18 19 20
50 43 49 51 44 42 38 33 30 30 32 32 32 32 32 32 34 34 31 30 26 25 26 26 27 26 29 28 30 30 28 26 25 17 16 16 18 19
35 35 35 42 39 38 38 33 29 27 27 26 26 26 26 27 28 29 32 29 25 23 25 25 25 26 24 29 30 29 28 28 27 18 15 16 18 19
33 32 33 34 36 35 36 34 28 26 25 24 24 24 24 24 24 25 26 27 24 22 25 27 25 24 25 23 25 27 25 21 18 18 17 18 19 19
30 31 31 32 32 31 29 29 27 26 25 24 22 21 21 21 22 23 24 24 26 25 26 27 25 23 23 19 15 14 17 18 16 15 19 20 20 21
28 29 29 28 28 27 27 27 26 25 24 21 20 20 21 23 23 21 20 19 18 18 18 21 19 17 21 18 16 17 17 14 17 19 19 18 18 20
26 26 26 26 25 25 26 26 25 24 23 23 22 23 24 21 20 20 19 17 15 15 13 15 16 18 18 17 17 17 13 15 17 18 20 20 21 21
27 27 26 26 25 25 25 25 26 25 24 24 21 19 18 18 18 19 19 18 16 15 16 16 14 15 16 13 17 15 15 16 18 19 19 20 20 24
27 26 26 25 24 23 22 20 20 19 19 19 19 18 18 19 18 19 20 18 15 16 15 16 18 19 19 17 17 16 16 17 18 17 20 19 19 22
25 25 24 23 21 20 19 18 18 20 21 19 19 17 17 18 18 18 18 18 16 15 14 16 16 14 13 10 17 15 14 17 17 16 19 19 17 20
22 21 20 19 18 18 18 18 19 19 19 19 18 16 14 17 16 17 17 12 14 14 13 12 12 12 8 6 6 14 19 17 14 12 14 18 20 22
18 18 19 18 19 18 17 17 17 17 16 15 16 16 13 14 12 12 10 8 9 14 12 12 11 11 14 15 5 9 15 18 17 15 15 15 16 18
17 17 17 18 17 17 14 13 13 14 14 14 11 11 10 11 9 11 10 11 12 12 12 13 14 15 14 14 10 4 13 16 18 22 24 21 17 15
17 17 17 17 17 16 16 15 14 12 12 12 11 11 9 8 12 11 10 11 10 11 12 12 14 14 14 14 10 11 10 10 17 17 18 25 27 25

GFSNE_sfc_dewp_117.txt.gz
Dewpoint
56 56 56 57 57 56 55 53 50 49 51 50 51 53 53 54 53 53 53 49 48 48 48 50 51 52 52 53 53 53 53 53 53 53 53 53 52 51
56 56 56 57 57 56 56 55 54 51 49 52 52 54 53 53 53 54 51 49 47 47 46 47 48 49 50 50 50 51 51 51 51 51 51 51 49 51
56 56 55 56 56 56 56 55 54 53 49 51 53 54 54 56 56 54 52 50 47 46 46 47 46 46 47 47 48 49 49 48 49 48 47 46 46 45
55 55 55 56 56 56 55 54 54 53 51 50 52 53 54 55 55 54 50 46 46 44 44 44 44 43 43 43 43 43 43 43 42 41 40 40 39 38
55 55 55 55 55 55 55 54 54 54 53 51 51 52 53 55 52 47 43 42 42 42 41 41 41 41 41 40 40 38 37 35 34 33 33 33 33 33
55 55 55 55 55 55 54 54 53 53 53 51 51 51 52 53 52 47 44 41 39 40 40 39 39 39 39 38 37 36 35 34 33 32 31 30 28 27
55 55 55 54 50 53 54 54 53 52 52 51 50 50 50 50 50 50 46 39 37 37 37 37 36 36 36 36 35 34 32 31 29 28 27 26 25 24
53 53 53 49 48 46 46 47 51 52 51 50 49 48 49 49 49 49 40 37 36 37 34 32 34 32 33 33 33 30 27 27 26 25 23 23 23 22
52 52 51 51 49 49 39 38 37 37 41 51 49 48 47 48 48 46 42 38 36 33 32 29 31 30 32 32 31 30 28 22 23 21 21 19 20 21
52 52 51 50 49 44 39 35 33 34 35 37 38 34 34 36 38 38 36 29 30 29 32 26 29 28 30 31 32 31 29 25 18 17 17 17 19 20
45 43 51 50 42 41 37 32 31 30 33 33 33 33 33 33 35 35 32 32 28 26 28 28 27 27 28 29 31 30 28 26 27 23 16 15 17 19
35 35 35 42 38 38 37 34 30 28 28 27 27 27 27 28 29 30 34 32 26 25 26 25 26 27 24 29 29 29 28 29 29 25 15 16 19 19
32 32 33 35 36 36 37 35 31 27 26 25 24 24 24 24 25 26 27 30 26 23 26 28 25 25 25 24 26 27 27 24 19 18 20 19 19 19
30 31 32 33 32 31 30 29 28 27 25 24 22 22 21 22 23 24 25 26 27 26 28 29 25 25 22 20 16 17 18 18 16 18 19 19 20 21
29 29 29 29 28 28 28 28 26 25 24 22 20 20 21 22 22 20 20 18 18 18 19 21 21 19 20 18 15 16 16 14 18 18 18 18 18 19
26 26 26 26 26 26 25 25 25 25 23 22 22 23 24 21 20 19 16 15 13 14 15 17 18 19 17 17 17 16 14 14 17 18 19 20 21 22
28 27 26 25 24 24 24 24 24 24 23 23 22 21 19 19 19 20 19 16 14 15 15 16 14 16 16 16 15 15 16 16 17 18 19 20 20 25
26 24 24 23 22 22 21 21 21 20 20 20 19 19 18 18 18 19 17 15 14 15 14 17 17 18 19 17 18 16 15 15 17 17 19 17 18 20
23 22 21 20 20 19 19 19 19 19 19 18 17 18 18 17 17 17 16 15 14 14 14 15 13 12 10 6 17 15 12 16 15 14 17 17 15 18
20 19 19 19 19 19 19 18 18 18 18 17 15 14 14 15 14 13 13 8 12 14 12 10 10 11 7 4 3 11 19 15 13 10 11 16 18 21
18 17 17 17 17 16 16 16 15 12 13 12 12 12 8 11 10 10 10 7 10 12 11 11 11 11 14 13 2 5 13 18 18 14 12 9 12 16
18 17 17 16 15 14 12 11 12 12 12 12 8 6 4 10 7 8 7 7 11 11 12 13 15 15 14 14 9 -1 10 13 16 21 22 21 17 11
15 15 15 15 15 14 14 12 10 9 9 8 8 8 5 6 9 8 8 8 10 9 10 9 12 14 14 14 11 9 8 8 15 14 14 20 21 26

GFSNE_sfc_dewp_123.txt.gz
Dewpoint
58 57 57 57 57 57 56 56 54 50 51 54 54 57 57 57 55 54 54 50 48 48 48 50 52 54 54 55 56 57 57 57 57 56 56 55 55 54
58 57 57 57 56 57 56 56 55 53 51 54 54 56 57 56 54 55 54 50 48 47 46 47 48 51 52 52 53 53 53 53 54 54 54 52 53 54
57 56 56 57 56 56 56 55 54 54 52 53 55 55 55 55 53 52 51 50 47 46 45 46 46 47 48 49 49 50 50 51 51 52 53 53 51 49
56 56 56 56 56 56 56 55 55 54 53 52 53 53 53 53 52 51 50 48 48 46 46 45 45 45 45 44 44 45 45 45 46 46 46 45 44 43
56 56 55 56 55 56 55 55 55 54 54 52 52 53 53 49 45 45 43 43 43 44 43 44 43 43 42 42 41 41 40 39 39 38 38 37 37 37
56 56 55 55 55 55 55 54 54 54 53 52 52 52 52 50 48 43 41 41 39 40 41 40 40 41 40 39 39 38 37 37 36 34 33 32 31 30
55 55 55 54 50 53 55 54 54 53 52 52 51 50 50 49 47 46 41 38 37 38 38 38 37 37 37 37 37 36 36 35 34 32 30 29 28 26
54 54 55 50 49 46 46 47 51 53 52 51 51 50 50 51 49 46 39 37 36 37 34 32 35 32 33 33 35 34 33 32 32 30 29 27 24 22
54 54 53 53 50 52 42 42 39 40 42 52 50 50 49 51 50 44 41 39 38 35 34 30 32 30 33 34 33 32 31 29 28 27 26 22 21 20
54 54 53 51 51 45 41 36 35 35 37 42 50 44 45 49 50 48 42 33 32 32 33 28 30 29 31 32 32 30 30 28 27 24 23 20 19 19
49 49 52 50 40 41 38 34 32 32 35 35 35 35 35 36 39 41 36 36 30 30 31 29 28 28 29 30 32 31 30 29 29 28 22 19 19 19
37 37 36 45 37 37 38 36 33 30 30 31 30 30 31 32 32 34 39 38 28 27 30 27 27 27 24 28 29 30 29 30 29 27 25 22 19 20
34 33 34 36 37 37 37 37 34 30 28 28 28 27 27 27 27 29 30 34 32 28 29 29 27 27 26 25 27 27 28 27 28 23 21 20 19 19
32 32 34 35 35 34 32 31 30 29 28 27 26 24 24 23 25 26 28 29 30 30 30 30 27 26 24 23 22 26 26 25 19 18 18 19 20 21
32 32 32 32 31 30 30 30 29 28 27 25 22 21 22 23 25 25 26 25 25 26 27 29 28 27 25 23 21 20 16 17 18 18 17 17 18 19
27 26 26 26 26 26 26 26 26 26 25 23 22 22 23 22 22 23 23 23 21 18 19 23 25 21 19 16 16 15 16 15 16 17 19 20 21 22
27 27 26 25 24 24 24 24 25 24 23 23 22 21 21 21 20 20 18 18 17 14 16 17 17 18 18 16 16 15 16 15 16 17 17 18 18 19
25 23 22 23 22 22 22 22 23 23 23 23 22 22 21 20 19 19 18 17 15 14 14 15 16 15 16 16 18 15 14 14 15 16 17 15 15 16
21 21 21 21 21 21 21 21 21 22 23 23 22 21 21 19 18 17 16 14 12 11 11 14 16 15 11 8 14 17 12 14 14 12 15 14 12 15
20 19 19 19 20 19 20 19 19 20 19 18 18 17 17 16 15 14 14 12 11 11 10 10 11 12 9 8 5 10 17 14 11 9 10 13 15 19
18 17 18 18 17 16 16 16 15 14 15 14 14 14 14 13 12 13 13 12 12 11 11 12 13 13 13 10 3 5 12 16 17 12 10 5 9 13
16 15 16 16 16 16 15 15 14 14 12 11 9 9 10 11 10 11 11 11 11 11 11 13 14 15 14 12 6 -3 7 9 15 18 16 14 9 6
12 12 11 12 13 12 12 11 10 11 11 10 10 9 9 9 10 10 9 9 9 8 8 8 9 10 12 11 8 6 5 6 11 10 10 13 14 19

GFSNE_sfc_dewp_129.txt.gz
Dewpoint
63 64 62 61 60 59 57 57 55 53 53 57 57 59 60 59 57 57 58 51 49 48 49 51 53 54 54 54 55 57 58 59 59 59 59 59 58 56
62 62 61 61 61 59 60 57 58 56 53 55 57 59 59 59 56 57 57 52 48 49 47 48 50 52 52 53 53 54 55 56 57 58 57 56 56 55
61 61 60 60 60 59 59 59 57 57 55 56 57 58 58 57 56 58 57 57 54 47 46 46 47 48 49 50 51 52 53 53 54 54 55 54 54 55
60 59 58 58 59 58 57 57 57 57 56 54 55 56 57 57 57 55 52 52 51 48 46 46 46 46 46 47 48 48 48 49 50 50 51 52 51 51
59 58 58 58 58 57 57 57 56 57 57 55 53 56 52 53 47 46 46 45 45 45 45 45 46 46 46 45 46 45 45 44 44 44 44 44 44 44
58 58 58 58 58 57 56 56 56 56 55 55 53 53 52 50 49 44 42 42 40 41 42 42 44 44 44 44 44 43 42 41 40 39 39 37 37 38
58 58 59 56 52 54 56 56 56 56 54 53 53 52 50 47 47 46 42 38 38 40 39 39 40 40 41 41 41 40 39 38 37 36 35 34 34 33
57 57 57 50 50 47 47 48 55 55 54 54 53 52 50 50 47 45 39 38 37 39 36 33 36 34 37 37 38 38 37 37 36 35 33 32 30 30
58 57 56 55 51 53 45 44 45 45 46 54 53 53 51 50 48 43 43 42 39 37 36 32 33 32 35 37 37 37 36 35 35 33 32 31 30 28
57 56 55 55 54 54 53 47 44 43 43 47 55 56 55 51 48 47 45 35 35 36 36 32 32 31 32 35 36 35 35 34 33 31 29 28 26 26
56 55 55 55 47 46 49 41 35 33 37 38 38 39 42 45 45 43 39 39 33 34 34 31 30 30 31 32 33 34 33 32 31 31 30 27 24 23
50 53 44 51 41 41 47 41 38 35 34 34 35 35 36 35 35 44 43 43 34 32 34 30 29 29 26 30 31 32 31 31 31 30 30 26 23 21
43 43 40 41 40 40 42 42 40 34 33 34 33 32 32 32 32 34 34 43 37 35 34 32 30 29 28 26 28 29 30 30 30 30 30 26 23 20
38 35 35 37 37 36 35 34 34 34 33 32 31 29 28 28 28 30 31 32 33 33 34 33 31 29 26 24 23 27 28 29 29 28 23 20 21 22
34 34 34 34 33 32 32 32 33 34 32 31 28 25 26 27 29 28 29 28 27 28 31 32 31 29 29 25 23 24 23 26 27 24 20 17 18 19
30 30 29 29 30 30 30 29 29 30 29 26 24 25 26 26 27 28 27 26 24 23 26 28 30 29 26 26 25 24 24 23 23 19 19 19 19 20
30 30 28 28 27 26 26 26 26 26 25 25 24 24 24 24 24 25 25 24 23 21 21 24 26 27 27 26 24 23 22 19 18 17 16 15 15 18
25 23 23 23 23 24 23 23 24 24 24 24 24 23 23 22 22 23 24 22 20 21 21 23 24 23 21 20 21 17 16 18 15 15 16 18 14 16
20 20 20 20 21 21 22 22 21 23 24 23 22 22 22 22 22 22 22 22 21 22 22 24 23 21 18 16 16 20 19 18 18 19 18 18 20 19
18 18 17 18 18 19 20 20 21 21 22 22 22 22 22 22 22 21 22 22 20 19 18 17 17 17 19 19 19 20 19 19 19 18 19 19 19 19
17 17 18 18 19 19 19 19 19 20 21 21 22 22 22 21 21 20 20 20 18 14 13 12 14 17 18 20 20 17 18 19 20 20 20 20 17 17
14 13 15 17 18 19 20 20 20 20 20 20 21 21 21 20 19 19 18 17 15 15 12 13 14 13 14 13 15 17 16 16 14 15 13 14 17 16
10 11 11 12 15 17 17 18 18 18 18 18 19 19 19 18 18 18 17 15 14 14 13 13 13 13 12 12 13 14 13 12 12 12 15 11 11 12

GFSNE_sfc_dewp_132.txt.gz
Dewpoint
64 66 65 65 65 63 61 61 58 54 55 57 56 59 61 62 60 61 61 51 50 50 51 52 54 54 54 54 55 56 57 58 58 59 59 59 59 59
64 64 65 64 64 63 62 61 59 58 55 55 56 57 60 60 59 60 59 53 49 49 49 49 51 52 52 52 52 53 55 56 57 58 58 59 59 57
62 63 63 63 63 63 63 61 60 59 57 56 56 57 60 60 59 59 58 57 54 48 48 48 49 49 50 50 50 51 52 54 55 56 57 57 56 56
61 61 61 61 62 62 61 61 61 60 57 57 57 57 58 59 59 58 56 57 56 49 48 48 47 46 47 48 48 49 50 51 51 52 53 53 54 55
60 60 60 61 61 61 60 60 60 58 58 57 57 58 58 59 54 49 50 51 48 47 45 45 45 46 46 46 47 48 48 47 47 47 47 48 49 49
60 61 59 60 61 60 59 59 59 57 57 56 56 56 55 53 53 48 43 43 42 43 43 44 45 46 46 46 46 45 45 45 44 43 42 42 42 43
59 59 60 58 54 56 59 59 58 58 56 56 55 55 51 49 49 48 45 39 39 41 40 39 41 43 43 44 45 44 43 42 41 40 39 39 38 39
57 58 59 53 52 47 48 49 56 58 56 55 55 54 52 52 51 47 40 39 38 40 37 34 37 36 37 39 40 40 40 39 38 38 37 36 36 35
58 58 58 58 53 57 46 45 46 47 48 56 55 55 53 54 51 46 44 43 40 38 36 32 34 33 37 38 38 38 38 38 37 36 35 34 33 32
58 58 58 58 57 57 55 52 53 51 50 54 58 57 56 55 53 51 46 36 35 37 37 32 33 32 33 36 37 37 37 36 35 34 34 32 31 30
58 58 58 57 50 47 53 50 43 36 38 40 41 44 47 46 49 45 39 39 33 35 35 32 32 31 32 32 34 35 35 35 34 32 32 31 30 27
53 56 45 55 44 43 53 47 44 39 36 37 37 38 39 42 40 50 43 42 34 33 34 31 31 30 27 31 32 32 32 33 33 32 31 29 27 24
46 47 49 42 42 42 47 47 48 38 35 36 35 35 35 35 36 36 40 44 39 36 36 34 31 31 29 27 30 31 31 31 31 31 31 29 29 25
40 43 40 41 41 41 40 38 36 36 36 35 34 33 32 31 31 32 33 33 34 35 35 35 33 31 27 25 24 28 29 30 30 28 29 30 25 21
34 34 35 36 34 33 34 34 34 35 34 34 32 29 29 29 30 30 30 30 29 30 33 33 34 32 30 26 24 25 25 28 29 29 28 26 22 20
32 32 31 31 32 32 32 32 33 34 35 32 29 27 29 29 29 30 28 28 26 25 29 31 32 30 27 26 25 24 25 24 28 29 28 22 19 20
28 27 29 29 28 27 27 29 30 30 27 27 27 26 26 26 27 27 27 27 24 23 23 26 28 29 28 27 24 26 26 26 28 27 22 20 17 20
23 22 22 22 23 24 24 25 26 26 27 26 26 25 25 25 25 25 26 24 22 22 22 23 24 23 23 24 29 25 26 26 24 18 17 17 15 18
19 19 19 20 20 21 22 22 22 24 25 25 24 24 24 24 23 23 23 23 22 23 25 27 28 26 22 18 23 26 24 19 18 19 19 20 20 19
20 19 19 20 19 19 20 21 22 22 23 23 23 24 24 24 23 23 23 23 23 24 25 26 27 27 23 21 21 22 23 21 22 21 20 19 20 18
17 18 20 21 22 22 22 22 22 22 23 23 23 23 24 24 24 24 25 25 25 23 20 20 22 26 24 23 21 18 19 20 21 22 21 22 18 18
16 15 16 18 20 22 22 22 22 22 22 23 23 24 25 25 25 24 24 23 21 19 17 17 17 19 20 18 17 18 16 16 15 14 14 15 21 21
14 14 14 14 16 19 21 22 22 22 22 23 23 23 24 23 23 22 22 20 19 18 16 14 13 13 13 14 16 16 17 15 14 14 18 11 12 11

GFSNE_sfc_dewp_138.txt.gz
Dewpoint
59 61 62 61 62 61 61 60 56 54 55 58 59 61 61 61 59 59 60 52 50 50 51 53 55 56 56 56 56 57 58 58 58 58 58 58 58 58
60 61 61 61 62 63 63 63 61 58 56 57 59 60 60 60 58 60 60 53 49 49 49 50 52 54 54 54 54 55 56 56 57 57 57 58 58 59
61 60 61 62 62 62 62 62 62 61 59 58 60 60 60 59 59 60 59 59 54 48 48 48 49 51 51 52 52 52 53 54 55 55 56 57 58 59
61 61 61 61 61 61 61 62 62 61 60 58 59 59 58 59 59 59 58 59 59 49 47 47 48 49 49 49 49 49 50 51 51 52 53 55 56 58
59 60 60 61 61 61 61 61 61 61 61 60 58 60 58 60 58 54 55 55 53 51 46 46 47 48 49 48 49 48 48 48 48 48 49 50 52 54
52 54 55 58 59 58 60 60 60 60 60 59 58 58 56 56 56 51 48 47 46 46 46 46 47 48 48 48 47 48 47 47 46 46 45 46 46 49
43 46 49 50 47 52 58 58 58 58 59 58 57 57 55 52 54 52 52 43 41 42 42 40 44 47 48 46 49 47 46 46 45 45 45 45 44 46
39 41 43 45 47 45 45 49 54 58 58 56 55 56 56 54 55 51 43 43 43 40 39 35 38 37 38 42 45 45 44 45 45 45 45 45 45 45
38 40 41 43 43 47 47 44 44 45 47 56 55 55 56 55 54 51 47 45 44 40 38 33 34 33 36 38 41 43 43 44 44 44 43 42 41 41
37 39 42 43 45 47 49 54 53 53 52 51 56 57 57 57 55 53 51 41 36 36 37 33 33 32 34 36 39 40 41 41 42 41 40 39 38 37
33 35 37 39 42 44 49 52 52 49 44 45 48 49 48 48 52 48 41 41 34 34 35 33 31 31 32 32 34 37 38 38 38 38 37 37 36 35
31 34 34 34 34 35 39 51 52 48 43 41 39 42 44 49 44 52 46 45 34 33 35 31 31 31 28 31 32 32 35 36 36 36 36 35 33 31
29 31 32 33 33 35 36 41 49 46 39 45 45 45 43 44 47 47 47 47 38 37 36 34 32 31 30 28 30 31 32 32 33 34 35 33 33 31
29 29 29 29 31 33 33 33 36 37 42 41 40 40 40 40 38 39 40 40 39 40 36 36 33 31 28 27 26 29 30 31 31 31 31 32 31 31
27 26 25 26 27 28 29 30 33 35 36 36 38 39 37 40 34 34 33 33 33 34 37 34 35 33 31 28 26 27 27 29 30 29 30 29 29 29
24 23 23 23 23 24 25 27 28 31 33 35 36 34 33 33 34 33 33 33 32 30 32 34 35 34 30 29 28 26 27 25 27 28 28 28 29 30
22 21 21 21 20 21 22 23 25 26 27 31 32 31 32 32 32 32 33 31 30 28 27 29 31 31 31 29 27 26 26 25 26 27 27 26 28 29
17 17 18 20 20 20 21 22 23 24 25 26 28 30 30 31 30 29 30 31 30 27 26 27 27 26 26 27 28 25 26 25 27 28 29 26 27 30
14 14 14 16 19 20 21 22 22 24 25 25 25 25 26 27 27 26 26 26 25 25 25 27 27 26 22 19 26 31 26 27 27 27 28 27 27 26
13 13 12 13 14 17 21 21 22 23 25 25 25 25 25 25 24 24 24 24 24 25 25 25 25 26 22 20 21 26 29 27 26 26 24 26 27 28
11 11 12 12 13 14 17 20 22 22 23 24 24 25 25 24 23 24 24 24 24 24 21 21 23 25 25 24 18 18 23 29 29 27 25 22 21 22
10 10 10 11 11 12 14 17 19 20 21 22 23 24 24 24 23 23 23 23 23 22 22 24 26 26 24 19 17 16 17 20 21 20 20 21 23 21
10 9 9 9 10 10 11 13 16 18 19 20 21 23 23 23 24 24 23 24 24 24 24 22 23 23 22 20 18 16 17 18 17 14 15 13 14 15

GFSNE_sfc_dewp_141.txt.gz
Dewpoint
60 59 60 60 61 61 60 58 54 50 53 56 59 61 62 62 60 59 60 52 50 50 51 53 55 56 56 57 57 57 58 58 58 58 58 58 58 58
59 58 59 60 60 61 60 59 58 55 52 56 59 60 61 61 59 60 59 54 49 49 49 50 52 54 54 55 55 56 56 56 57 57 57 57 58 58
59 59 59 60 60 61 61 61 60 59 56 57 59 60 60 60 60 59 59 57 54 48 48 48 49 51 51 52 53 54 54 54 55 56 56 57 58 58
60 59 59 60 60 60 61 60 60 61 60 57 58 58 59 58 60 59 59 58 57 50 47 48 48 48 49 49 50 51 51 52 52 53 54 55 56 57
50 56 59 60 60 60 59 59 60 60 60 59 58 59 58 57 56 55 56 55 54 50 46 46 46 47 48 48 49 50 50 49 49 49 49 50 51 53
43 45 46 48 50 51 56 59 60 59 59 59 59 58 55 55 56 55 52 50 51 47 47 47 46 46 47 47 48 49 49 49 48 47 46 46 46 49
40 40 41 42 42 42 46 50 56 58 57 56 56 56 54 53 56 55 56 47 45 45 45 45 46 48 48 46 49 49 48 48 47 47 46 45 44 46
36 38 40 41 42 40 40 41 44 48 55 55 55 54 54 54 55 53 49 44 47 43 43 38 40 38 39 42 46 46 47 47 46 46 45 44 44 44
35 36 37 38 40 42 42 41 42 40 40 53 55 55 55 54 54 53 48 49 51 42 42 37 36 35 36 39 40 42 43 45 45 45 44 43 43 43
32 33 35 37 38 34 36 38 43 47 49 48 52 55 56 56 56 55 53 45 37 37 40 37 34 35 33 35 39 40 42 42 43 44 43 43 42 42
30 32 33 33 32 33 34 36 38 43 45 45 46 48 47 46 52 50 42 41 34 36 36 35 32 32 32 32 34 38 39 40 41 42 42 42 40 39
29 30 30 29 30 31 33 34 35 40 45 45 43 43 44 48 42 54 48 48 36 33 35 35 31 32 30 31 32 33 34 37 38 39 39 39 38 35
25 26 26 27 28 29 30 30 30 33 34 39 47 46 42 47 48 48 53 51 43 38 37 37 32 32 31 28 30 31 33 33 34 35 36 36 36 35
24 24 24 25 25 26 27 27 29 32 35 37 38 40 42 42 43 44 44 48 50 48 38 40 34 33 29 27 26 29 31 32 33 31 32 34 34 33
24 23 23 23 23 23 24 25 26 27 29 32 34 36 36 38 35 33 34 34 33 35 38 38 36 36 36 30 26 27 28 29 31 30 30 29 29 29
18 19 19 21 19 20 22 23 24 25 26 26 29 33 33 33 33 33 33 34 33 32 33 34 36 36 32 30 29 27 28 26 29 29 28 29 29 30
14 14 14 15 16 19 20 20 22 23 24 25 26 28 31 32 32 32 32 32 32 31 31 32 33 32 32 31 28 28 27 27 28 27 27 26 28 30
12 11 11 12 12 15 17 19 20 21 23 25 25 25 26 28 30 30 31 32 31 31 30 30 29 29 28 28 30 27 26 26 26 27 27 25 26 29
9 9 9 10 10 11 14 16 19 20 21 22 24 25 25 25 26 26 27 28 27 28 28 29 31 32 26 21 26 29 25 26 26 27 27 27 25 27
8 7 7 8 9 10 11 14 16 18 19 21 21 22 24 24 24 24 25 25 25 25 25 26 27 28 26 22 22 26 29 27 27 26 26 26 26 27
7 6 7 7 7 8 9 11 14 16 17 18 20 22 23 23 22 24 23 23 23 22 20 20 23 26 26 26 22 22 27 31 29 25 25 22 21 22
6 5 5 6 6 6 7 9 11 14 16 17 18 19 22 23 22 23 23 22 22 22 22 24 25 25 23 20 17 17 18 21 25 26 27 26 23 19
6 5 4 4 4 5 6 7 9 11 15 16 17 18 19 20 22 23 23 23 23 22 22 21 22 22 21 19 18 16 17 17 17 16 19 24 26 27

GFSNE_sfc_dewp_144.txt.gz
Dewpoint
62 61 61 60 60 60 59 57 55 51 51 54 55 59 58 60 60 61 60 55 51 50 51 52 54 56 57 58 58 58 58 58 58 58 58 58 58 58
63 61 61 60 61 60 60 59 57 56 52 53 56 58 59 60 60 61 61 55 51 50 49 50 51 53 55 55 56 56 56 57 57 57 57 57 58 58
60 60 59 59 59 59 59 59 58 57 55 55 56 58 58 59 59 59 60 59 58 49 50 48 48 50 51 52 53 53 54 55 55 56 56 57 57 58
58 58 58 58 57 58 59 60 60 59 58 56 57 57 57 58 58 57 59 59 58 52 49 48 48 48 49 49 50 50 52 52 53 53 54 55 56 57
50 50 49 52 57 57 59 59 60 60 60 59 57 57 57 55 55 55 55 57 56 53 47 47 48 48 48 48 49 50 50 50 50 50 50 50 52 53
46 46 46 44 43 43 46 49 54 59 59 59 59 57 55 55 55 56 53 52 55 49 50 49 49 47 47 47 47 48 48 49 49 48 47 47 48 49
41 41 42 42 42 42 43 45 46 49 52 57 57 57 55 53 54 53 56 56 50 48 50 48 49 49 48 45 48 47 47 47 48 48 48 47 46 46
36 36 37 39 39 37 37 37 38 43 45 47 53 55 54 53 53 54 54 48 50 45 48 45 45 47 46 47 46 45 45 45 46 47 48 47 46 45
33 34 34 35 36 32 34 35 36 38 36 44 45 48 54 53 53 53 54 51 53 43 49 47 37 41 38 40 41 42 42 44 45 46 46 45 45 44
32 32 31 31 30 31 32 34 36 38 41 42 45 48 50 54 55 55 55 50 37 37 41 41 34 36 34 35 39 40 41 41 43 44 45 46 44 43
29 29 28 27 28 30 30 32 33 35 38 39 40 41 44 45 48 54 44 43 39 37 36 39 33 33 33 33 34 38 39 41 41 42 42 44 43 42
26 25 26 26 26 27 28 28 27 29 30 32 35 40 41 45 41 50 53 49 39 35 35 40 32 33 33 32 32 33 34 37 39 40 41 42 41 40
23 23 24 25 25 26 26 26 26 28 29 33 36 40 42 43 46 46 51 49 48 40 37 39 33 33 33 30 30 32 33 33 34 36 40 41 41 38
20 21 22 24 24 24 24 25 26 26 28 30 32 34 35 37 39 41 41 46 50 49 39 41 36 36 33 28 29 30 31 32 33 32 33 36 37 37
18 18 19 19 20 21 22 23 24 24 25 25 26 28 31 34 34 35 34 34 34 34 37 41 40 39 40 36 28 28 28 30 32 31 31 32 31 32
14 14 14 16 14 15 18 20 22 23 23 23 23 26 28 30 32 34 33 34 33 33 33 34 35 38 37 35 32 28 29 27 30 30 30 29 30 30
11 11 11 11 11 12 13 16 19 20 21 22 22 23 24 26 27 31 32 32 33 31 30 32 33 33 32 32 31 31 29 28 30 29 29 27 28 29
8 7 7 7 8 9 10 12 15 16 19 21 21 21 21 23 25 26 29 31 32 32 30 30 31 30 29 30 32 30 29 28 28 29 29 26 26 29
5 5 5 5 6 7 8 9 11 15 17 18 19 21 21 21 21 23 25 26 27 28 28 30 31 33 29 26 26 31 28 27 27 27 28 28 26 28
3 3 2 3 4 4 6 7 9 12 14 16 16 18 21 20 20 21 21 23 24 25 24 26 27 28 30 24 23 26 30 27 27 26 25 26 27 29
3 2 2 2 2 3 4 5 7 10 12 14 16 16 17 20 20 20 20 19 22 22 20 21 24 28 28 27 23 24 28 31 30 25 24 23 22 22
3 2 2 1 1 2 3 3 5 7 9 12 15 16 17 18 19 20 20 19 20 21 21 23 25 26 25 22 20 19 21 25 28 29 28 26 22 17
2 3 1 1 0 1 1 1 3 4 7 10 13 15 16 17 19 20 19 19 20 20 20 19 21 22 21 20 18 17 19 20 21 21 25 28 27 26

GFSNE_sfc_dewp_147.txt.gz
Dewpoint
58 62 62 62 62 61 59 58 56 52 53 54 55 58 61 61 60 60 60 55 51 51 52 53 54 56 57 57 58 59 59 59 58 59 58 58 58 58
57 59 62 62 61 61 60 58 58 55 52 53 55 56 58 59 58 60 60 55 50 49 49 51 51 53 54 55 55 56 57 57 57 58 58 58 58 58
56 56 62 61 60 60 60 59 58 56 54 55 55 56 56 57 57 58 59 59 58 49 48 49 49 50 51 52 53 54 55 55 56 56 57 57 57 58
59 59 61 61 60 60 59 59 59 58 57 55 55 55 55 56 56 56 57 59 59 53 48 48 49 49 49 49 49 50 51 52 53 54 54 55 56 57
46 56 59 59 59 58 59 59 59 59 58 57 57 56 57 55 54 54 54 55 55 53 47 46 47 48 48 48 48 49 49 49 49 49 50 51 52 54
41 43 44 47 47 47 49 49 50 53 58 58 58 57 57 55 55 55 55 53 56 51 49 48 47 47 46 47 47 48 48 48 48 48 47 47 48 50
36 38 39 38 37 38 43 42 45 46 47 51 56 58 57 54 55 55 56 54 52 53 51 49 49 49 49 46 48 47 47 47 47 47 47 47 47 48
34 34 34 33 33 35 35 37 39 42 44 46 48 49 53 54 54 54 53 50 53 47 48 49 48 49 50 50 47 46 45 46 46 46 46 46 46 46
31 32 32 31 31 32 33 36 36 37 35 40 42 45 47 48 53 52 53 52 53 48 48 46 38 46 47 44 44 44 44 44 44 44 44 44 44 44
28 28 28 29 30 31 31 31 32 34 36 37 40 42 44 46 48 50 52 50 39 38 43 43 34 38 34 38 41 42 42 42 43 43 43 43 43 43
26 28 27 27 30 31 28 28 29 30 30 31 33 35 36 37 39 46 47 48 47 39 38 41 35 35 33 34 36 39 40 40 41 41 42 42 42 42
22 23 26 27 27 28 26 26 24 25 27 29 31 35 38 40 38 41 46 47 46 36 37 41 34 35 36 34 34 35 36 38 39 40 41 42 42 44
19 19 22 24 25 26 26 25 24 26 26 28 29 31 32 34 36 37 42 46 47 41 40 41 35 33 34 33 31 33 34 35 36 37 39 40 41 43
17 18 20 21 21 22 22 23 23 23 24 24 24 25 26 28 30 33 35 37 39 39 39 41 36 39 37 32 35 31 32 33 34 33 34 38 39 40
16 16 17 17 17 16 19 20 19 20 21 21 21 22 25 27 29 31 33 35 35 34 35 39 38 38 42 41 36 30 29 31 33 32 32 33 35 35
11 11 11 14 10 12 13 15 17 17 18 19 20 22 23 23 24 26 28 31 33 34 33 34 35 35 38 39 37 30 30 31 31 32 32 31 32 33
8 8 7 7 7 8 8 10 12 14 15 17 18 19 20 21 22 23 25 25 29 31 33 32 33 33 33 33 33 32 30 29 31 30 31 28 30 31
4 3 3 3 4 5 5 6 8 10 12 15 16 17 18 20 20 21 22 22 23 27 30 31 30 30 30 30 32 31 30 30 30 30 30 28 26 29
-0 -1 -1 0 1 3 3 4 4 8 11 12 14 15 16 17 19 19 20 20 20 21 25 28 30 31 31 31 26 31 28 28 28 28 29 28 27 27
-1 -2 -3 -2 -1 -0 1 2 3 5 8 9 12 14 15 16 17 18 19 19 19 19 19 21 25 26 28 30 24 26 31 28 28 27 26 27 28 29
-1 -2 -2 -2 -2 -1 -1 0 1 3 5 6 9 11 13 15 15 17 19 17 16 18 17 17 22 26 28 28 24 24 27 31 30 26 26 25 24 25
-1 -2 -2 -2 -3 -2 -2 -1 -0 1 3 5 7 9 12 14 14 15 17 17 17 17 15 18 21 22 24 24 21 22 23 26 29 29 28 26 24 19
-1 -2 -3 -4 -3 -2 -2 -2 -1 -1 2 4 6 8 11 12 15 15 17 17 17 17 15 15 17 18 18 19 19 19 21 23 23 23 24 28 27 27